Sigfox identifier Datetime Temperature Humidity SNR
0035F777 2019-03-23 08:15:04 20.4 20 20.5
0035F777 2019-03-23 07:45:16 20.4 20 20.7
0035F777 2019-03-23 07:15:30 20.4 20 20.8
0035F777 2019-03-23 06:45:43 20.4 20 20.9
0035F777 2019-03-23 06:15:58 20.4 20 20.7
0035F777 2019-03-23 05:46:13 20.4 19 20.9
0035F777 2019-03-23 05:16:27 20.5 19 20.8
0035F777 2019-03-23 04:46:41 20.5 19 20.7
0035F777 2019-03-23 04:16:56 20.5 19 20.8
0035F777 2019-03-23 03:47:10 20.5 19 20.8
0035F777 2019-03-23 03:17:24 20.6 19 20.8
0035F777 2019-03-23 02:47:40 20.6 19 20.9
0035F777 2019-03-23 02:17:56 20.7 19 20.8
0035F777 2019-03-23 01:48:10 20.7 19 20.8
0035F777 2019-03-23 01:18:28 20.7 18 19.1
0035F777 2019-03-23 00:48:42 20.8 18 18.9
0035F777 2019-03-23 00:18:58 20.9 18 19
0035F777 2019-03-22 23:49:14 20.9 18 19
0035F777 2019-03-22 23:19:30 21 18 19
0035F777 2019-03-22 22:49:47 21.1 18 20.7
0035F777 2019-03-22 22:20:05 21.1 18 20.7
0035F777 2019-03-22 21:50:19 21.2 17 20.6
0035F777 2019-03-22 21:20:35 21.2 17 20.6
0035F777 2019-03-22 20:50:52 21.3 17 20.7
0035F777 2019-03-22 20:21:08 21.2 17 21.8
0035F777 2019-03-22 19:51:24 21.2 17 21.8
0035F777 2019-03-22 19:21:44 21.2 16 21.7
0035F777 2019-03-22 18:51:57 21.2 16 21.6
0035F777 2019-03-22 18:22:13 21.2 16 21.5
0035F777 2019-03-22 17:52:30 21.2 15 22.5
0035F777 2019-03-22 17:22:46 21.1 15 22.5
0035F777 2019-03-22 16:53:01 21.1 15 22.7
0035F777 2019-03-22 16:23:17 21.1 15 22.7
0035F777 2019-03-22 15:53:33 21 16 22.7
0035F777 2019-03-22 15:23:49 20.9 16 22.7
0035F777 2019-03-22 14:54:04 20.8 17 22.8
0035F777 2019-03-22 14:24:19 20.7 17 22.8
0035F777 2019-03-22 13:54:02 20.6 17 22.9
0035F777 2019-03-22 13:24:17 20.6 18 23
0035F777 2019-03-22 12:54:32 20.6 18 23.2
0035F777 2019-03-22 12:24:49 20.6 19 23.2
0035F777 2019-03-22 11:55:05 20.6 19 23.3
0035F777 2019-03-22 11:25:20 20.6 19 23.4
0035F777 2019-03-22 10:55:35 20.6 20 22.6
0035F777 2019-03-22 10:25:51 20.6 20 22.7
0035F777 2019-03-22 09:56:06 20.6 21 22.8
0035F777 2019-03-22 09:26:21 20.5 21 22.9
0035F777 2019-03-22 08:56:36 20.5 22 22.8
0035F777 2019-03-22 08:26:51 20.5 22 22
0035F777 2019-03-22 07:57:07 20.5 23 22
0035F777 2019-03-22 07:27:22 20.6 23 22
0035F777 2019-03-22 06:57:36 20.5 24 22.9
0035F777 2019-03-22 06:27:54 20.6 24 22.9
0035F777 2019-03-22 05:58:07 20.6 24 22.1
0035F777 2019-03-22 05:28:22 20.5 25 21.9
0035F777 2019-03-22 04:58:37 20.6 25 21.9
0035F777 2019-03-22 04:28:52 20.6 25 21.9
0035F777 2019-03-22 03:59:07 20.6 26 21.9
0035F777 2019-03-22 03:29:23 20.6 26 21.8
0035F777 2019-03-22 02:59:37 20.6 26 21.7
0035F777 2019-03-22 02:29:53 20.6 27 21.8
0035F777 2019-03-22 02:00:08 20.6 27 21.7
0035F777 2019-03-22 01:30:22 20.6 27 21.7
0035F777 2019-03-22 01:00:38 20.7 27 21.6
0035F777 2019-03-22 00:30:53 20.7 28 21.4
0035F777 2019-03-22 00:01:08 20.7 28 21.5
0035F777 2019-03-21 23:31:24 20.8 28 21.4
0035F777 2019-03-21 23:01:40 20.8 28 21.7
0035F777 2019-03-21 22:31:55 20.8 28 21.7
0035F777 2019-03-21 22:02:10 20.8 28 21.6
0035F777 2019-03-21 21:32:26 20.8 28 21.6
0035F777 2019-03-21 21:02:42 20.8 28 21.6
0035F777 2019-03-21 20:32:57 20.8 28 21.7
0035F777 2019-03-21 20:03:11 20.9 28 21.6
0035F777 2019-03-21 19:33:26 20.9 28 21.7
0035F777 2019-03-21 19:03:41 21 28 21.7
0035F777 2019-03-21 18:33:56 21 28 20.7
0035F777 2019-03-21 18:04:10 21 27 20.9
0035F777 2019-03-21 17:34:24 21.1 27 21
0035F777 2019-03-21 17:04:40 21.1 27 21.2
0035F777 2019-03-21 16:34:56 21.2 28 21.2
0035F777 2019-03-21 16:05:10 21.2 28 21.4
0035F777 2019-03-21 15:35:25 21.2 29 21.4
0035F777 2019-03-21 15:05:40 21.2 28 21.5
0035F777 2019-03-21 14:35:56 21.1 27 21.7
0035F777 2019-03-21 14:06:11 21 27 21.7
0035F777 2019-03-21 13:36:27 20.9 26 21.8
0035F777 2019-03-21 13:06:09 20.9 26 22
0035F777 2019-03-21 12:36:25 20.8 25 22.1
0035F777 2019-03-21 12:06:41 20.8 25 22.2
0035F777 2019-03-21 11:36:56 20.7 25 22.2
0035F777 2019-03-21 11:07:11 20.7 25 22
0035F777 2019-03-21 10:37:27 20.6 25 21.9
0035F777 2019-03-21 10:07:43 20.6 25 22
0035F777 2019-03-21 09:37:58 20.6 24 22
0035F777 2019-03-21 09:08:12 20.5 24 22.1
0035F777 2019-03-21 08:38:27 20.5 24 22
0035F777 2019-03-21 08:08:40 20.5 24 22.1
0035F777 2019-03-21 07:38:54 20.5 25 22.2
0035F777 2019-03-21 07:09:08 20.5 25 22.1
0035F777 2019-03-21 06:39:22 20.5 25 22.9
0035F777 2019-03-21 06:09:37 20.5 25 22.7
0035F777 2019-03-21 05:39:50 20.5 25 23.4
0035F777 2019-03-21 05:10:03 20.5 25 23.3
0035F777 2019-03-21 04:40:17 20.5 25 23.2
0035F777 2019-03-21 04:10:31 20.5 25 23.2
0035F777 2019-03-21 03:40:45 20.5 25 23.2
0035F777 2019-03-21 03:10:58 20.5 25 23.1
0035F777 2019-03-21 02:41:11 20.5 25 23
0035F777 2019-03-21 02:11:26 20.6 25 22.9
0035F777 2019-03-21 01:41:39 20.6 26 22.9
0035F777 2019-03-21 01:11:51 20.6 26 22.8
0035F777 2019-03-21 00:42:04 20.6 26 22.7
0035F777 2019-03-21 00:12:17 20.6 26 22.5
0035F777 2019-03-20 23:42:31 20.6 26 22.5
0035F777 2019-03-20 23:12:45 20.6 26 22.4
0035F777 2019-03-20 22:42:59 20.6 26 22.3
0035F777 2019-03-20 22:13:12 20.6 26 22.4
0035F777 2019-03-20 21:43:27 20.6 26 22.4
0035F777 2019-03-20 21:13:43 20.7 26 22.4
0035F777 2019-03-20 20:43:59 20.7 26 22.2
0035F777 2019-03-20 20:14:14 20.7 26 22.1
0035F777 2019-03-20 19:44:30 20.7 26 22
0035F777 2019-03-20 19:14:46 20.7 26 21.9
0035F777 2019-03-20 18:45:01 20.8 25 22
0035F777 2019-03-20 18:15:16 20.8 25 20.8
0035F777 2019-03-20 17:45:31 20.9 25 20.9
0035F777 2019-03-20 17:15:48 20.9 25 19.7
0035F777 2019-03-20 16:46:05 21 25 19.9
0035F777 2019-03-20 16:16:17 21 25 19.9
0035F777 2019-03-20 15:46:32 21 26 20.1
0035F777 2019-03-20 15:16:49 21 25 20.1
0035F777 2019-03-20 14:47:03 21 25 20.2
0035F777 2019-03-20 14:17:19 21 25 20.3
0035F777 2019-03-20 13:47:34 20.9 25 20.3
0035F777 2019-03-20 13:17:51 20.9 25 20.3
0035F777 2019-03-20 12:48:07 20.8 25 20.5
0035F777 2019-03-20 12:17:50 20.8 25 20.8
0035F777 2019-03-20 11:48:05 20.8 25 20.8
0035F777 2019-03-20 11:18:20 20.7 25 20.9
0035F777 2019-03-20 10:48:35 20.7 24 21
0035F777 2019-03-20 10:18:50 20.6 24 21.1
0035F777 2019-03-20 09:49:04 20.5 24 21.3
0035F777 2019-03-20 09:19:17 20.5 24 21.2
0035F777 2019-03-20 08:49:32 20.4 24 21.4
0035F777 2019-03-20 08:19:46 20.4 25 21.4
0035F777 2019-03-20 07:50:01 20.4 25 21.5
0035F777 2019-03-20 07:20:16 20.5 26 21.5
0035F777 2019-03-20 06:50:31 20.5 26 21.5
0035F777 2019-03-20 06:20:47 20.5 26 21.5
0035F777 2019-03-20 05:51:03 20.5 26 21.4
0035F777 2019-03-20 05:21:18 20.5 26 21.2
0035F777 2019-03-20 04:51:33 20.5 26 21.1
0035F777 2019-03-20 04:21:50 20.5 27 21.1
0035F777 2019-03-20 03:52:07 20.5 27 20.8
0035F777 2019-03-20 03:22:22 20.5 27 21
0035F777 2019-03-20 02:52:37 20.5 27 20.9
0035F777 2019-03-20 02:22:52 20.5 27 20.8
0035F777 2019-03-20 01:53:08 20.5 27 20.7
0035F777 2019-03-20 01:23:23 20.5 27 20.6
0035F777 2019-03-20 00:53:38 20.6 28 20.6
0035F777 2019-03-20 00:23:53 20.6 28 20.4
0035F777 2019-03-19 23:54:09 20.6 28 20.4
0035F777 2019-03-19 23:24:23 20.6 28 20.2
0035F777 2019-03-19 22:54:38 20.6 28 20.2
0035F777 2019-03-19 22:24:53 20.7 28 20
0035F777 2019-03-19 21:55:08 20.7 28 19.6
0035F777 2019-03-19 21:25:24 20.7 28 19.3
0035F777 2019-03-19 20:55:39 20.8 28 19.2
0035F777 2019-03-19 20:25:55 20.8 28 19.1
0035F777 2019-03-19 19:56:12 20.8 29 19.5
0035F777 2019-03-19 19:26:29 20.8 29 19.6
0035F777 2019-03-19 18:56:45 20.9 29 19.6
0035F777 2019-03-19 18:27:01 20.9 29 19.5
0035F777 2019-03-19 17:57:16 21.1 29 19.9
0035F777 2019-03-19 17:27:32 21.1 30 20
0035F777 2019-03-19 16:57:48 21.1 30 20.1
0035F777 2019-03-19 16:28:03 21.1 30 20.4
0035F777 2019-03-19 15:58:18 21.1 30 20.5
0035F777 2019-03-19 15:28:35 21 29 21.7
0035F777 2019-03-19 14:58:51 21.1 29 21.7
0035F777 2019-03-19 14:29:05 21 29 21.8
0035F777 2019-03-19 13:59:20 21 29 21.8
0035F777 2019-03-19 13:29:34 21 29 22
0035F777 2019-03-19 12:59:49 21 29 22
0035F777 2019-03-19 12:30:04 20.9 29 21.9
0035F777 2019-03-19 12:00:18 20.9 29 22
0035F777 2019-03-19 11:29:56 20.8 29 22.2
0035F777 2019-03-19 11:00:11 20.8 29 22.2
0035F777 2019-03-19 10:30:27 20.7 28 22.4
0035F777 2019-03-19 10:00:42 20.6 28 22.5
0035F777 2019-03-19 09:30:57 20.5 27 22.7
0035F777 2019-03-19 09:01:11 20.5 27 22.7
0035F777 2019-03-19 08:31:26 20.5 27 22.7
0035F777 2019-03-19 08:01:40 20.5 27 22.6
0035F777 2019-03-19 07:31:55 20.5 27 22.5
0035F777 2019-03-19 07:02:10 20.5 27 22.4
0035F777 2019-03-19 06:32:23 20.5 27 22.6
0035F777 2019-03-19 06:02:36 20.5 27 22.5
0035F777 2019-03-19 05:32:50 20.5 27 22.5
0035F777 2019-03-19 05:03:05 20.5 27 22.5
0035F777 2019-03-19 04:33:20 20.5 27 22.4
0035F777 2019-03-19 04:03:34 20.5 27 22.4
0035F777 2019-03-19 03:33:49 20.5 27 21.3
0035F777 2019-03-19 03:04:03 20.5 27 21.3
0035F777 2019-03-19 02:34:18 20.5 27 21.1
0035F777 2019-03-19 02:04:32 20.5 27 21.3
0035F777 2019-03-19 01:34:47 20.5 27 21.2
0035F777 2019-03-19 01:05:01 20.5 27 21.1
0035F777 2019-03-19 00:35:15 20.5 27 21.2
0035F777 2019-03-19 00:05:29 20.5 27 21.1
0035F777 2019-03-18 23:35:43 20.6 27 21
0035F777 2019-03-18 23:05:58 20.6 27 20.9
0035F777 2019-03-18 22:36:13 20.6 27 20.8
0035F777 2019-03-18 22:06:28 20.6 27 20.5
0035F777 2019-03-18 21:36:44 20.6 27 20.4
0035F777 2019-03-18 21:06:58 20.6 27 20.3
0035F777 2019-03-18 20:37:12 20.6 27 20.5
0035F777 2019-03-18 20:07:26 20.7 26 20.6
0035F777 2019-03-18 19:37:41 20.7 26 20.5
0035F777 2019-03-18 19:07:56 20.7 26 20.6
0035F777 2019-03-18 18:38:11 20.7 26 20.5
0035F777 2019-03-18 18:08:26 20.8 26 20.2
0035F777 2019-03-18 17:38:42 20.8 27 20.1
0035F777 2019-03-18 17:08:57 20.9 27 20.1
0035F777 2019-03-18 16:39:12 20.9 27 20.2
0035F777 2019-03-18 16:09:27 20.9 27 20.4
0035F777 2019-03-18 15:39:41 20.8 27 20.2
0035F777 2019-03-18 15:09:55 20.8 27 20.2
0035F777 2019-03-18 14:40:10 20.7 27 20.1
0035F777 2019-03-18 14:10:25 20.7 27 20.2
0035F777 2019-03-18 13:40:40 20.7 27 20.3
0035F777 2019-03-18 13:10:56 20.7 27 20.4
0035F777 2019-03-18 12:41:12 20.7 27 20.6
0035F777 2019-03-18 12:11:26 20.7 27 20.7
0035F777 2019-03-18 11:41:42 20.7 27 20.6
0035F777 2019-03-18 11:11:55 20.7 27 20.7
0035F777 2019-03-18 10:41:37 20.6 27 20.6
0035F777 2019-03-18 10:11:53 20.6 27 20.7
0035F777 2019-03-18 09:42:08 20.6 27 20.7
0035F777 2019-03-18 09:12:24 20.5 27 20.5
0035F777 2019-03-18 08:42:39 20.5 27 20.2
0035F777 2019-03-18 08:12:54 20.5 27 19.9
0035F777 2019-03-18 07:43:11 20.5 27 19.9
0035F777 2019-03-18 07:13:26 20.5 27 19.8
0035F777 2019-03-18 06:43:42 20.5 27 19.9
0035F777 2019-03-18 06:13:57 20.5 27 20
0035F777 2019-03-18 05:44:12 20.5 27 20
0035F777 2019-03-18 05:14:27 20.5 27 20
0035F777 2019-03-18 04:44:41 20.5 27 20.1
0035F777 2019-03-18 04:14:55 20.5 27 19.7
0035F777 2019-03-18 03:45:11 20.5 27 19.9
0035F777 2019-03-18 03:15:27 20.5 27 19.8
0035F777 2019-03-18 02:45:45 20.5 27 20.1
0035F777 2019-03-18 02:15:59 20.5 27 20
0035F777 2019-03-18 01:46:13 20.5 26 19.8
0035F777 2019-03-18 01:16:28 20.5 26 19.6
0035F777 2019-03-18 00:46:42 20.5 26 19.6
0035F777 2019-03-18 00:16:56 20.5 26 19.5
0035F777 2019-03-17 23:47:12 20.5 26 19.5
0035F777 2019-03-17 23:17:25 20.5 26 19.8
0035F777 2019-03-17 22:47:42 20.5 26 19.7
0035F777 2019-03-17 22:17:55 20.5 26 19.6
0035F777 2019-03-17 21:48:10 20.5 26 19.6
0035F777 2019-03-17 21:18:26 20.5 26 19.8
0035F777 2019-03-17 20:48:42 20.5 26 20.1
0035F777 2019-03-17 20:18:57 20.5 26 20.3
0035F777 2019-03-17 19:49:13 20.5 26 20.3
0035F777 2019-03-17 19:19:28 20.5 26 20.5
0035F777 2019-03-17 18:49:46 20.5 26 20.5
0035F777 2019-03-17 18:19:57 20.5 26 20.3
0035F777 2019-03-17 17:50:12 20.5 26 20.3
0035F777 2019-03-17 17:20:28 20.5 26 20.1
0035F777 2019-03-17 16:50:42 20.5 26 20.2
0035F777 2019-03-17 16:20:57 20.5 26 20.2
0035F777 2019-03-17 15:51:13 20.5 26 20.5
0035F777 2019-03-17 15:21:27 20.5 26 20.5
0035F777 2019-03-17 14:51:42 20.5 26 20.7
0035F777 2019-03-17 14:21:57 20.5 26 20.5
0035F777 2019-03-17 13:52:12 20.5 26 20.5
0035F777 2019-03-17 13:22:27 20.6 26 20.5
0035F777 2019-03-17 12:52:43 20.6 26 20.4
0035F777 2019-03-17 12:22:57 20.6 26 20.3
0035F777 2019-03-17 11:53:11 20.5 26 20.3
0035F777 2019-03-17 11:23:25 20.5 26 20.6
0035F777 2019-03-17 10:53:39 20.5 26 20.5
0035F777 2019-03-17 10:23:54 20.5 26 20.6
0035F777 2019-03-17 09:53:36 20.5 26 20.8
0035F777 2019-03-17 09:23:49 20.5 26 20.9
0035F777 2019-03-17 08:54:04 20.5 26 20.9
0035F777 2019-03-17 08:24:18 20.5 26 21.9
0035F777 2019-03-17 07:54:33 20.5 26 22
0035F777 2019-03-17 07:24:47 20.5 26 21.9
0035F777 2019-03-17 06:55:02 20.5 27 21.9
0035F777 2019-03-17 06:25:17 20.5 27 21.9
0035F777 2019-03-17 05:55:31 20.5 27 21.9
0035F777 2019-03-17 05:25:45 20.5 27 22.1
0035F777 2019-03-17 04:56:00 20.5 27 22.1
0035F777 2019-03-17 04:26:14 20.5 27 21.9
0035F777 2019-03-17 03:56:29 20.5 27 21.8
0035F777 2019-03-17 03:26:45 20.5 27 21.7
0035F777 2019-03-17 02:57:02 20.5 27 21.7
0035F777 2019-03-17 02:27:17 20.5 27 21.8
0035F777 2019-03-17 01:57:33 20.5 27 21.7
0035F777 2019-03-17 01:27:49 20.5 27 21.8
0035F777 2019-03-17 00:58:04 20.5 27 21.7
0035F777 2019-03-17 00:28:18 20.5 27 21.8
0035F777 2019-03-16 23:58:33 20.5 27 22
0035F777 2019-03-16 23:28:47 20.5 27 21.8
0035F777 2019-03-16 22:59:02 20.5 27 21.8
0035F777 2019-03-16 22:29:17 20.5 26 21.9
0035F777 2019-03-16 21:59:31 20.5 26 21.8
0035F777 2019-03-16 21:29:46 20.5 26 21.8
0035F777 2019-03-16 21:00:01 20.5 26 21.6
0035F777 2019-03-16 20:30:17 20.5 26 21.4
0035F777 2019-03-16 20:00:33 20.5 26 20.1
0035F777 2019-03-16 19:30:48 20.5 26 20.1
0035F777 2019-03-16 19:01:03 20.5 26 20.1
0035F777 2019-03-16 18:31:18 20.5 26 20.2
0035F777 2019-03-16 18:01:33 20.5 26 20.4
0035F777 2019-03-16 17:31:47 20.6 26 20.4
0035F777 2019-03-16 17:02:02 20.5 26 20.4
0035F777 2019-03-16 16:32:16 20.5 26 20.5
0035F777 2019-03-16 16:02:31 20.5 26 20.5
0035F777 2019-03-16 15:32:44 20.5 26 20.5
0035F777 2019-03-16 15:02:59 20.5 26 20.7
0035F777 2019-03-16 14:33:14 20.5 26 20.7
0035F777 2019-03-16 14:03:29 20.5 26 20.6
0035F777 2019-03-16 13:33:46 20.6 26 20.9
0035F777 2019-03-16 13:04:01 20.5 26 20.9
0035F777 2019-03-16 12:34:18 20.6 26 21
0035F777 2019-03-16 12:04:32 20.5 26 20.8
0035F777 2019-03-16 11:34:48 20.5 26 20.8
0035F777 2019-03-16 11:05:03 20.5 26 20.8
0035F777 2019-03-16 10:35:18 20.6 26 20.7
0035F777 2019-03-16 10:05:31 20.6 26 20.5
0035F777 2019-03-16 09:35:46 20.6 26 21.8
0035F777 2019-03-16 09:05:29 20.6 26 22.1
0035F777 2019-03-16 08:35:45 20.6 26 22.2
0035F777 2019-03-16 08:06:00 20.6 26 23.1
0035F777 2019-03-16 07:36:16 20.6 26 23
0035F777 2019-03-16 07:06:31 20.6 26 23.1
0035F777 2019-03-16 06:36:46 20.6 26 23
0035F777 2019-03-16 06:07:01 20.6 26 23
0035F777 2019-03-16 05:37:15 20.6 26 23
0035F777 2019-03-16 05:07:31 20.6 26 22.9
0035F777 2019-03-16 04:37:46 20.5 26 22.8
0035F777 2019-03-16 04:08:00 20.6 26 22.8
0035F777 2019-03-16 03:38:15 20.6 26 22.8
0035F777 2019-03-16 03:08:30 20.6 26 22.6
0035F777 2019-03-16 02:38:43 20.6 26 22.4
0035F777 2019-03-16 02:09:00 20.6 26 22.4
0035F777 2019-03-16 01:39:12 20.6 26 22.3
0035F777 2019-03-16 01:09:27 20.6 26 22.3
0035F777 2019-03-16 00:39:43 20.5 27 22.3
0035F777 2019-03-16 00:09:57 20.6 27 22.4
0035F777 2019-03-15 23:40:11 20.6 27 22.3
0035F777 2019-03-15 23:10:25 20.6 27 22.2
0035F777 2019-03-15 22:40:40 20.6 27 22.2
0035F777 2019-03-15 22:10:54 20.6 27 22.1
0035F777 2019-03-15 21:41:09 20.7 27 21
0035F777 2019-03-15 21:11:24 20.7 27 20.8
0035F777 2019-03-15 20:41:38 20.7 27 20.6
0035F777 2019-03-15 20:11:52 20.7 27 20.7
0035F777 2019-03-15 19:42:07 20.7 27 19
0035F777 2019-03-15 19:12:22 20.7 26 19.1
0035F777 2019-03-15 18:42:37 20.7 26 19
0035F777 2019-03-15 18:12:51 20.7 26 19.2
0035F777 2019-03-15 17:43:06 20.7 26 19.2
0035F777 2019-03-15 17:13:21 20.7 26 19.1
0035F777 2019-03-15 16:43:36 20.7 26 19.2
0035F777 2019-03-15 16:13:52 20.7 26 19.3
0035F777 2019-03-15 15:44:07 20.7 26 20.9
0035F777 2019-03-15 15:14:20 20.7 26 20.9
0035F777 2019-03-15 14:44:35 20.7 26 21.1
0035F777 2019-03-15 14:14:50 20.7 26 21.2
0035F777 2019-03-15 13:45:04 20.7 26 21.2
0035F777 2019-03-15 13:15:19 20.7 26 21.2
0035F777 2019-03-15 12:45:32 20.7 26 21.2
0035F777 2019-03-15 12:15:45 20.7 26 21.2
0035F777 2019-03-15 11:45:59 20.7 26 21
0035F777 2019-03-15 11:16:13 20.7 26 21.2
0035F777 2019-03-15 10:46:28 20.6 26 21.4
0035F777 2019-03-15 10:16:43 20.6 26 21.5
0035F777 2019-03-15 09:46:57 20.6 26 21.5
0035F777 2019-03-15 09:17:13 20.6 25 21.6
0035F777 2019-03-15 08:47:30 20.5 25 21.7
0035F777 2019-03-15 08:17:13 20.5 25 21.5
0035F777 2019-03-15 07:47:27 20.5 24 21.6
0035F777 2019-03-15 07:17:41 20.5 24 21.7
0035F777 2019-03-15 06:47:56 20.5 24 21.6
0035F777 2019-03-15 06:18:11 20.5 24 21.6
0035F777 2019-03-15 05:48:27 20.5 24 21.6
0035F777 2019-03-15 05:18:41 20.6 24 21.6
0035F777 2019-03-15 04:48:57 20.6 24 21.5
0035F777 2019-03-15 04:19:12 20.6 24 21.5
0035F777 2019-03-15 03:49:28 20.6 24 20.1
0035F777 2019-03-15 03:19:41 20.6 24 20
0035F777 2019-03-15 02:49:57 20.5 24 19.8
0035F777 2019-03-15 02:20:12 20.6 24 19.7
0035F777 2019-03-15 01:50:28 20.6 24 19.7
0035F777 2019-03-15 01:20:42 20.6 24 19.6
0035F777 2019-03-15 00:50:57 20.6 24 19.4
0035F777 2019-03-15 00:21:11 20.6 24 19.3
0035F777 2019-03-14 23:51:26 20.6 24 19.3
0035F777 2019-03-14 23:21:41 20.6 24 19.2
0035F777 2019-03-14 22:51:55 20.7 24 18.9
0035F777 2019-03-14 22:22:11 20.7 24 18.7
0035F777 2019-03-14 21:52:26 20.7 24 18.7
0035F777 2019-03-14 21:22:40 20.7 24 18.6
0035F777 2019-03-14 20:52:56 20.7 24 18.2
0035F777 2019-03-14 20:23:11 20.7 24 18.2
0035F777 2019-03-14 19:53:25 20.8 24 18.1
0035F777 2019-03-14 19:23:39 20.8 24 18.1
0035F777 2019-03-14 18:53:54 20.8 24 17.9
0035F777 2019-03-14 18:24:09 20.8 24 17.8
0035F777 2019-03-14 17:54:25 20.8 24 17.8
0035F777 2019-03-14 17:24:41 20.8 24 17.9
0035F777 2019-03-14 16:54:57 20.8 24 17.8
0035F777 2019-03-14 16:25:13 20.9 24 18
0035F777 2019-03-14 15:55:28 20.8 24 17.9
0035F777 2019-03-14 15:25:44 20.8 24 17.8
0035F777 2019-03-14 14:56:01 20.9 24 17.8
0035F777 2019-03-14 14:26:16 20.9 24 18.3
0035F777 2019-03-14 13:56:31 20.8 24 18.3
0035F777 2019-03-14 13:26:47 20.8 24 18.5
0035F777 2019-03-14 12:57:02 20.8 24 18.7
0035F777 2019-03-14 12:27:17 20.8 23 18.8
0035F777 2019-03-14 11:57:34 20.7 23 18.7
0035F777 2019-03-14 11:27:49 20.7 23 18.6
0035F777 2019-03-14 10:58:05 20.7 23 20.4
0035F777 2019-03-14 10:28:23 20.7 22 20.5
0035F777 2019-03-14 09:58:38 20.7 22 20.5
0035F777 2019-03-14 09:28:54 20.6 21 20.4
0035F777 2019-03-14 08:59:09 20.6 21 20.4
0035F777 2019-03-14 05:00:42 20.5 18 20.3
0035F777 2019-03-14 04:30:58 20.5 18 20.1
0035F777 2019-03-14 04:01:15 20.5 18 20.2
0035F777 2019-03-14 03:31:31 20.5 18 20.3
0035F777 2019-03-14 03:01:46 20.5 18 20.3
0035F777 2019-03-14 02:32:01 20.5 18 20
0035F777 2019-03-14 02:02:15 20.5 18 21.4
0035F777 2019-03-14 01:32:31 20.5 17 21.3
0035F777 2019-03-14 01:02:47 20.5 17 21.2
0035F777 2019-03-14 00:33:03 20.6 17 21.3
0035F777 2019-03-14 00:03:19 20.5 17 21.4
0035F777 2019-03-13 23:33:34 20.5 17 21.4
0035F777 2019-03-13 23:03:48 20.6 17 19.9
0035F777 2019-03-13 22:34:04 20.5 17 19.8
0035F777 2019-03-13 22:04:20 20.6 16 19.9
0035F777 2019-03-13 21:34:35 20.6 16 19.9
0035F777 2019-03-13 21:04:49 20.6 16 20
0035F777 2019-03-13 20:35:03 20.6 16 20.2
0035F777 2019-03-13 20:05:17 20.7 16 21.5
0035F777 2019-03-13 19:35:31 20.7 16 21.6
0035F777 2019-03-13 19:05:46 20.7 16 21.4
0035F777 2019-03-13 18:36:01 20.7 16 21.5
0035F777 2019-03-13 18:06:16 20.8 16 21.5
0035F777 2019-03-13 17:36:32 20.8 16 21.6
0035F777 2019-03-13 17:06:48 20.9 16 21.7
0035F777 2019-03-13 16:37:03 20.9 16 21.5
0035F777 2019-03-13 16:07:18 20.8 16 21.6
0035F777 2019-03-13 15:37:34 20.8 16 21.6
0035F777 2019-03-13 15:07:50 20.8 16 21.6
0035F777 2019-03-13 14:38:05 20.8 16 21.7
0035F777 2019-03-13 14:08:21 20.8 16 21.7
0035F777 2019-03-13 13:38:35 20.8 16 20.4
0035F777 2019-03-13 13:08:51 20.7 16 20.6
0035F777 2019-03-13 12:39:07 20.7 16 20.7
0035F777 2019-03-13 12:09:24 20.7 16 20.7
0035F777 2019-03-13 11:39:39 20.7 16 20.7
0035F777 2019-03-13 11:09:56 20.7 16 20.9
0035F777 2019-03-13 10:40:12 20.6 16 20.9
0035F777 2019-03-13 10:10:27 20.6 16 21
0035F777 2019-03-13 09:40:44 20.4 15 21.1
0035F777 2019-03-13 09:10:57 20.3 15 21.3
0035F777 2019-03-13 08:41:12 20.2 14 21.3
0035F777 2019-03-13 08:11:27 20.3 15 21.2
0035F777 2019-03-13 07:41:43 20.2 15 19.9
0035F777 2019-03-13 07:11:58 20.3 15 19.9
0035F777 2019-03-13 06:41:40 20.3 15 20.3
0035F777 2019-03-13 06:11:55 20.3 15 20.4
0035F777 2019-03-13 05:42:09 20.3 15 20.5
0035F777 2019-03-13 05:12:22 20.3 15 20.5
0035F777 2019-03-13 04:42:35 20.3 15 21.8
0035F777 2019-03-13 04:12:50 20.3 16 21.9
0035F777 2019-03-13 03:43:04 20.4 16 21.8
0035F777 2019-03-13 03:13:19 20.4 16 21.9
0035F777 2019-03-13 02:43:34 20.4 16 21.8
0035F777 2019-03-13 02:13:47 20.4 16 21.9
0035F777 2019-03-13 01:44:04 20.4 16 22.8
0035F777 2019-03-13 01:14:17 20.4 16 22.7
0035F777 2019-03-13 00:44:31 20.4 16 22.6
0035F777 2019-03-13 00:14:47 20.4 16 22.6
0035F777 2019-03-12 23:45:03 20.5 16 22.6
0035F777 2019-03-12 23:15:19 20.5 16 22.6
0035F777 2019-03-12 22:45:35 20.5 16 22.6
0035F777 2019-03-12 22:15:49 20.5 16 22.5
0035F777 2019-03-12 21:46:04 20.5 16 23.3
0035F777 2019-03-12 21:16:19 20.5 16 23.9
0035F777 2019-03-12 20:46:34 20.5 16 24.5
0035F777 2019-03-12 20:16:48 20.6 16 25
0035F777 2019-03-12 19:47:03 20.6 16 25.5
0035F777 2019-03-12 19:17:17 20.6 16 25.9
0035F777 2019-03-12 18:47:33 20.6 16 26.2
0035F777 2019-03-12 18:17:48 20.6 16 26.6
0035F777 2019-03-12 17:48:04 20.7 16 26.9
0035F777 2019-03-12 17:18:18 20.7 16 27.2
0035F777 2019-03-12 16:48:36 20.7 16 27.5
0035F777 2019-03-12 16:18:50 20.7 16 27.5
0035F777 2019-03-12 15:49:04 20.6 16 27.7
0035F777 2019-03-12 15:19:19 20.6 16 28
0035F777 2019-03-12 14:49:34 20.6 16 28.3
0035F777 2019-03-12 14:19:48 20.6 16 28.5
0035F777 2019-03-12 13:50:03 20.6 16 28.7
0035F777 2019-03-12 13:20:19 20.6 16 28.7
0035F777 2019-03-12 12:50:35 20.6 15 28.9
0035F777 2019-03-12 12:20:52 20.5 15 29.1
0035F777 2019-03-12 11:51:09 20.5 15 29.3
0035F777 2019-03-12 11:21:22 20.5 15 29.5
0035F777 2019-03-12 10:51:36 20.4 15 29.7
0035F777 2019-03-12 10:21:52 20.4 15 29.8
0035F777 2019-03-12 09:52:05 20.3 15 30
0035F777 2019-03-12 09:22:20 20.3 15 30
0035F777 2019-03-12 08:52:35 20.2 15 29.8
0035F777 2019-03-12 08:22:50 20.2 15 29.8
0035F777 2019-03-12 07:53:04 20.3 15 29.8
0035F777 2019-03-12 07:23:18 20.3 15 29.8
0035F777 2019-03-12 06:53:32 20.3 15 29.8
0035F777 2019-03-12 06:23:47 20.3 16 29.8
0035F777 2019-03-12 05:53:30 20.3 16 29.8
0035F777 2019-03-12 05:23:45 20.3 16 29.8
0035F777 2019-03-12 04:54:00 20.3 16 29.8
0035F777 2019-03-12 04:24:15 20.4 16 29.7
0035F777 2019-03-12 03:54:28 20.4 16 29.5
0035F777 2019-03-12 03:24:42 20.4 16 29.3
0035F777 2019-03-12 02:54:57 20.4 16 29.1
0035F777 2019-03-12 02:25:12 20.4 16 28.9
0035F777 2019-03-12 01:55:28 20.4 16 28.7
0035F777 2019-03-12 01:25:42 20.4 16 28.5
0035F777 2019-03-12 00:55:58 20.4 16 28.3
0035F777 2019-03-12 00:26:13 20.4 16 28
0035F777 2019-03-11 23:56:30 20.4 16 27.8
0035F777 2019-03-11 23:26:46 20.5 16 27.5
0035F777 2019-03-11 22:57:02 20.5 16 27.2
0035F777 2019-03-11 22:27:19 20.5 16 26.9
0035F777 2019-03-11 21:57:34 20.5 16 26.6
0035F777 2019-03-11 21:27:49 20.6 16 26.2
0035F777 2019-03-11 20:58:03 20.6 16 26.2
0035F777 2019-03-11 20:28:19 20.6 16 25.8
0035F777 2019-03-11 19:58:36 20.6 16 25.4
0035F777 2019-03-11 19:28:50 20.6 16 24.9
0035F777 2019-03-11 18:59:08 20.6 16 24.3
0035F777 2019-03-11 18:29:23 20.7 16 23.6
0035F777 2019-03-11 17:59:39 20.7 16 22.9
0035F777 2019-03-11 17:29:53 20.7 16 22
0035F777 2019-03-11 17:00:10 20.7 16 22
0035F777 2019-03-11 16:30:25 20.7 16 21
0035F777 2019-03-11 16:00:40 20.7 16 21
0035F777 2019-03-11 15:30:56 20.6 16 22
0035F777 2019-03-11 15:01:14 20.5 16 22.1
0035F777 2019-03-11 14:31:27 20.5 16 22.1
0035F777 2019-03-11 14:01:42 20.5 16 22.1
0035F777 2019-03-11 13:31:57 20.5 16 22.2
0035F777 2019-03-11 13:02:12 20.4 16 22.3
0035F777 2019-03-11 12:32:27 20.4 16 22.4
0035F777 2019-03-11 12:02:42 20.4 16 22.5
0035F777 2019-03-11 11:32:57 20.4 16 22.4
0035F777 2019-03-11 11:03:14 20.4 16 22.4
0035F777 2019-03-11 10:33:30 20.4 17 22.5
0035F777 2019-03-11 10:03:44 20.3 17 22.4
0035F777 2019-03-11 09:33:57 20.3 17 22.4
0035F777 2019-03-11 09:04:11 20.2 17 22.4
0035F777 2019-03-11 08:34:27 20.3 17 22.4
0035F777 2019-03-11 08:04:43 20.3 17 22.4
0035F777 2019-03-11 07:34:59 20.3 18 22.4
0035F777 2019-03-11 07:05:15 20.3 18 22.4
0035F777 2019-03-11 06:35:30 20.3 18 22.5
0035F777 2019-03-11 06:05:46 20.3 18 22.6
0035F777 2019-03-11 05:36:00 20.3 18 22.5
0035F777 2019-03-11 05:05:43 20.3 18 21.5
0035F777 2019-03-11 04:35:58 20.3 18 21.5
0035F777 2019-03-11 04:06:13 20.3 18 21.5
0035F777 2019-03-11 03:36:28 20.3 18 20.3
0035F777 2019-03-11 03:06:43 20.4 18 20.1
0035F777 2019-03-11 02:36:57 20.4 19 20
0035F777 2019-03-11 02:07:11 20.4 19 20.2
0035F777 2019-03-11 01:37:25 20.4 19 20.2
0035F777 2019-03-11 01:07:40 20.4 19 20.1
0035F777 2019-03-11 00:37:55 20.4 19 20.1
0035F777 2019-03-11 00:08:09 20.4 19 20.1
0035F777 2019-03-10 23:38:23 20.4 19 20.1
0035F777 2019-03-10 23:08:37 20.4 19 20.1
0035F777 2019-03-10 22:38:51 20.4 19 20
0035F777 2019-03-10 22:09:04 20.5 19 19.9
0035F777 2019-03-10 21:39:19 20.5 19 20
0035F777 2019-03-10 21:09:33 20.5 19 19.9
0035F777 2019-03-10 20:39:49 20.5 19 20.1
0035F777 2019-03-10 20:10:03 20.5 19 20.1
0035F777 2019-03-10 19:40:17 20.5 20 20.1
0035F777 2019-03-10 19:10:31 20.6 20 20.1
0035F777 2019-03-10 18:40:46 20.6 20 20.2
0035F777 2019-03-10 18:11:01 20.6 20 20.1
0035F777 2019-03-10 17:41:16 20.6 20 20.2
0035F777 2019-03-10 17:11:31 20.6 20 21.5
0035F777 2019-03-10 16:41:45 20.6 20 21.7
0035F777 2019-03-10 16:12:01 20.6 20 21.6
0035F777 2019-03-10 15:42:18 20.5 21 21.7
0035F777 2019-03-10 15:12:34 20.5 21 21.8
0035F777 2019-03-10 14:42:49 20.5 22 21.9
0035F777 2019-03-10 14:13:05 20.5 23 22.1
0035F777 2019-03-10 13:43:20 20.5 23 21.9
0035F777 2019-03-10 13:13:35 20.5 23 21.9
0035F777 2019-03-10 12:43:50 20.4 24 22
0035F777 2019-03-10 12:14:06 20.4 24 21.9
0035F777 2019-03-10 11:44:21 20.4 24 21.9
0035F777 2019-03-10 11:14:36 20.4 24 22
0035F777 2019-03-10 10:44:51 20.4 24 22.1
0035F777 2019-03-10 10:15:05 20.4 24 22.2
0035F777 2019-03-10 09:45:21 20.4 24 22.2
0035F777 2019-03-10 09:15:38 20.4 24 22.1
0035F777 2019-03-10 08:45:54 20.5 24 22.2
0035F777 2019-03-10 08:16:09 20.4 24 22.1
0035F777 2019-03-10 07:46:24 20.5 24 22
0035F777 2019-03-10 07:16:40 20.5 24 22
0035F777 2019-03-10 06:46:56 20.5 24 22.1
0035F777 2019-03-10 06:17:12 20.5 24 22.1
0035F777 2019-03-10 05:47:28 20.4 24 22
0035F777 2019-03-10 05:17:43 20.5 24 21.9
0035F777 2019-03-10 04:47:58 20.5 24 20.8
0035F777 2019-03-10 04:17:41 20.5 24 20.7
0035F777 2019-03-10 03:47:56 20.5 24 20.6
0035F777 2019-03-10 03:18:11 20.5 24 20.4
0035F777 2019-03-10 02:48:27 20.5 24 20.2
0035F777 2019-03-10 02:18:41 20.5 24 20.1
0035F777 2019-03-10 01:48:55 20.5 24 20.1
0035F777 2019-03-10 01:19:12 20.5 24 19.9
0035F777 2019-03-10 00:49:26 20.5 24 19.8
0035F777 2019-03-10 00:19:43 20.5 23 19.7
0035F777 2019-03-09 23:49:57 20.5 23 19.6
0035F777 2019-03-09 23:20:13 20.5 23 19.5
0035F777 2019-03-09 22:50:29 20.5 23 19.6
0035F777 2019-03-09 22:20:45 20.5 23 19.5
0035F777 2019-03-09 21:50:59 20.5 23 19.5
0035F777 2019-03-09 21:21:12 20.6 23 19.5
0035F777 2019-03-09 20:51:27 20.6 23 19.4
0035F777 2019-03-09 20:21:42 20.6 23 19.5
0035F777 2019-03-09 19:51:57 20.6 23 19.6
0035F777 2019-03-09 19:22:12 20.6 23 19.6
0035F777 2019-03-09 18:52:26 20.6 23 19.5
0035F777 2019-03-09 18:22:41 20.6 23 19.6
0035F777 2019-03-09 17:52:55 20.7 23 19.7
0035F777 2019-03-09 17:23:10 20.7 23 19.8
0035F777 2019-03-09 16:53:24 20.7 23 19.7
0035F777 2019-03-09 16:23:39 20.7 23 19.6
0035F777 2019-03-09 15:53:55 20.7 23 19.6
0035F777 2019-03-09 15:24:10 20.7 23 19.7
0035F777 2019-03-09 14:54:27 20.7 23 19.6
0035F777 2019-03-09 14:24:42 20.6 23 19.7
0035F777 2019-03-09 13:54:57 20.6 23 20
0035F777 2019-03-09 13:25:13 20.6 23 20.1
0035F777 2019-03-09 12:55:27 20.6 23 20.1
0035F777 2019-03-09 12:25:43 20.6 24 20.1
0035F777 2019-03-09 11:55:58 20.5 24 20.1
0035F777 2019-03-09 11:26:15 20.5 24 20.1
0035F777 2019-03-09 10:56:31 20.5 24 19.9
0035F777 2019-03-09 10:26:47 20.5 24 19.9
0035F777 2019-03-09 09:57:03 20.5 24 19.9
0035F777 2019-03-09 09:27:20 20.5 24 20.1
0035F777 2019-03-09 08:57:34 20.5 24 20.4
0035F777 2019-03-09 08:27:50 20.5 25 20.3
0035F777 2019-03-09 07:58:05 20.5 25 20.5
0035F777 2019-03-09 07:28:18 20.5 25 20.5
0035F777 2019-03-09 06:58:32 20.5 25 20.4
0035F777 2019-03-09 06:28:47 20.5 26 20.4
0035F777 2019-03-09 05:59:03 20.5 26 20.4
0035F777 2019-03-09 05:29:19 20.5 26 20.5
0035F777 2019-03-09 04:59:33 20.6 26 20.4
0035F777 2019-03-09 04:29:47 20.6 26 20.4
0035F777 2019-03-09 04:00:04 20.6 26 20.5
0035F777 2019-03-09 03:29:47 20.6 26 20.3
0035F777 2019-03-09 03:00:04 20.6 26 21.5
0035F777 2019-03-09 02:30:18 20.6 26 21.3
0035F777 2019-03-09 02:00:34 20.7 26 21.2
0035F777 2019-03-09 01:30:49 20.7 27 21.2
0035F777 2019-03-09 01:01:04 20.7 27 21.1
0035F777 2019-03-09 00:31:21 20.7 27 21
0035F777 2019-03-09 00:01:32 20.7 27 20.8
0035F777 2019-03-08 23:31:48 20.7 27 20.8
0035F777 2019-03-08 23:02:03 20.8 27 20.7
0035F777 2019-03-08 22:32:18 20.8 27 20.6
0035F777 2019-03-08 22:02:33 20.8 27 20.5
0035F777 2019-03-08 21:32:50 20.8 27 20.3
0035F777 2019-03-08 21:03:06 20.8 27 20.2
0035F777 2019-03-08 20:33:23 20.9 27 20.1
0035F777 2019-03-08 20:03:37 20.9 27 20.1
0035F777 2019-03-08 19:33:52 20.9 27 20.4
0035F777 2019-03-08 19:04:08 20.9 27 20.4
0035F777 2019-03-08 18:34:23 20.9 27 20.3
0035F777 2019-03-08 18:04:38 21 27 20.4
0035F777 2019-03-08 17:34:51 21 27 20.6
0035F777 2019-03-08 17:05:07 21.1 27 21.9
0035F777 2019-03-08 16:35:22 21.1 28 21.8
0035F777 2019-03-08 16:05:37 21 28 21.9
0035F777 2019-03-08 15:35:53 21 27 22.2
0035F777 2019-03-08 15:06:09 20.9 27 21.4
0035F777 2019-03-08 14:36:24 20.9 27 21.4
0035F777 2019-03-08 14:06:40 20.9 27 21.6
0035F777 2019-03-08 13:36:55 20.9 27 21.8
0035F777 2019-03-08 13:07:09 20.8 27 21.8
0035F777 2019-03-08 12:37:24 20.8 26 21.9
0035F777 2019-03-08 12:07:38 20.8 26 22
0035F777 2019-03-08 11:37:53 20.7 26 23
0035F777 2019-03-08 11:08:08 20.7 26 23
0035F777 2019-03-08 10:38:21 20.7 25 23
0035F777 2019-03-08 10:08:34 20.7 25 23.3
0035F777 2019-03-08 09:38:48 20.7 25 23.3
0035F777 2019-03-08 09:09:04 20.7 25 23.4
0035F777 2019-03-08 08:39:20 20.6 24 23.5
0035F777 2019-03-08 08:09:36 20.6 24 23.5
0035F777 2019-03-08 07:39:51 20.7 24 23.3
0035F777 2019-03-08 07:10:06 20.6 23 23.4
0035F777 2019-03-08 06:40:20 20.7 23 23.5
0035F777 2019-03-08 06:10:38 20.6 23 23.3
0035F777 2019-03-08 05:40:51 20.7 23 23.3
0035F777 2019-03-08 05:11:05 20.7 23 22.6
0035F777 2019-03-08 04:41:18 20.7 23 22.5
0035F777 2019-03-08 04:11:32 20.6 23 22.5
0035F777 2019-03-08 03:41:47 20.6 23 22.4
0035F777 2019-03-08 03:12:01 20.7 23 22.2
0035F777 2019-03-08 02:41:44 20.7 23 22
0035F777 2019-03-08 02:11:59 20.7 23 22.9
0035F777 2019-03-08 01:42:14 20.6 23 22.8
0035F777 2019-03-08 01:12:30 20.7 23 22.9
0035F777 2019-03-08 00:42:44 20.7 23 22.8
0035F777 2019-03-08 00:13:01 20.7 22 22.7
0035F777 2019-03-07 23:43:17 20.7 22 21.6
0035F777 2019-03-07 23:13:33 20.7 22 21.6
0035F777 2019-03-07 22:43:49 20.7 22 21.7
0035F777 2019-03-07 22:14:05 20.7 22 21.4
0035F777 2019-03-07 21:44:21 20.8 22 21.2
0035F777 2019-03-07 21:14:36 20.8 22 21.1
0035F777 2019-03-07 20:44:52 20.8 22 21
0035F777 2019-03-07 20:15:10 20.8 22 21
0035F777 2019-03-07 19:45:24 20.8 23 21.1
0035F777 2019-03-07 19:15:40 20.9 23 21.1
0035F777 2019-03-07 18:45:54 20.9 23 21.1
0035F777 2019-03-07 18:16:08 21 23 21.3
0035F777 2019-03-07 17:46:23 21.1 23 21.1
0035F777 2019-03-07 17:16:39 21.1 23 21.1
0035F777 2019-03-07 16:46:54 21.1 23 21.4
0035F777 2019-03-07 16:17:11 21.1 23 21.5
0035F777 2019-03-07 15:47:26 21.1 22 21.5
0035F777 2019-03-07 15:17:42 21.1 22 21.6
0035F777 2019-03-07 14:47:57 21.1 22 21.8
0035F777 2019-03-07 14:18:13 21 22 21.9
0035F777 2019-03-07 13:48:29 20.9 21 20.7
0035F777 2019-03-07 13:18:45 20.9 21 21
0035F777 2019-03-07 12:49:00 20.9 20 21
0035F777 2019-03-07 12:19:16 20.9 20 21.1
0035F777 2019-03-07 11:49:32 20.9 20 21.2
0035F777 2019-03-07 11:19:48 20.8 19 21.5
0035F777 2019-03-07 10:50:04 20.8 19 21.7
0035F777 2019-03-07 10:20:21 20.7 18 21.5
0035F777 2019-03-07 09:50:37 20.6 18 21.6
0035F777 2019-03-07 09:20:54 20.6 17 21.7
0035F777 2019-03-07 08:51:10 20.6 17 22.7
0035F777 2019-03-07 08:21:26 20.6 17 22.7
0035F777 2019-03-07 07:51:42 20.6 16 22.7
0035F777 2019-03-07 07:21:59 20.6 16 22.6
0035F777 2019-03-07 06:52:16 20.6 16 22.4
0035F777 2019-03-07 06:22:32 20.6 16 22.4
0035F777 2019-03-07 05:52:48 20.6 15 22.2
0035F777 2019-03-07 05:23:04 20.6 15 22.3
0035F777 2019-03-07 04:53:20 20.6 15 22.1
0035F777 2019-03-07 04:23:34 20.6 15 22
0035F777 2019-03-07 03:53:48 20.6 14 21.9
0035F777 2019-03-07 03:24:02 20.6 14 21.8
0035F777 2019-03-07 02:54:17 20.6 14 21.9
0035F777 2019-03-07 02:24:32 20.6 14 21.8
0035F777 2019-03-07 01:54:15 20.6 13 21.8
0035F777 2019-03-07 01:24:30 20.6 13 21.5
0035F777 2019-03-07 00:54:46 20.6 13 21.4
0035F777 2019-03-07 00:25:00 20.6 13 21.4
0035F777 2019-03-06 23:55:14 20.6 13 21.4
0035F777 2019-03-06 23:25:28 20.6 13 21.5
0035F777 2019-03-06 22:55:44 20.6 12 21.3
0035F777 2019-03-06 22:25:59 20.6 12 21.3
0035F777 2019-03-06 21:56:15 20.6 12 21.2
0035F777 2019-03-06 21:26:30 20.6 12 21.3
0035F777 2019-03-06 20:56:45 20.6 12 19.9
0035F777 2019-03-06 20:26:59 20.7 12 21.3
0035F777 2019-03-06 19:57:13 20.7 11 21.3
0035F777 2019-03-06 19:27:29 20.7 11 21.4
0035F777 2019-03-06 18:57:46 20.7 11 21.8
0035F777 2019-03-06 18:28:02 20.8 11 21.8
0035F777 2019-03-06 17:58:18 20.8 11 22
0035F777 2019-03-06 17:28:34 20.8 11 22
0035F777 2019-03-06 16:58:49 20.9 11 22.1
0035F777 2019-03-06 16:29:05 20.9 11 22.2
0035F777 2019-03-06 15:59:19 20.9 10 22.1
0035F777 2019-03-06 15:29:34 20.9 10 22.2
0035F777 2019-03-06 14:59:48 21 11 22.1
0035F777 2019-03-06 14:30:02 20.8 11 22.3
0035F777 2019-03-06 14:00:17 20.7 10 22.3
0035F777 2019-03-06 13:30:34 20.6 10 22.4
0035F777 2019-03-06 13:00:45 20.6 10 22.6
0035F777 2019-03-06 12:31:00 20.6 10 22.7
0035F777 2019-03-06 12:01:14 20.6 10 22.9
0035F777 2019-03-06 11:31:30 20.5 10 23
0035F777 2019-03-06 11:01:45 20.6 11 22.8
0035F777 2019-03-06 10:32:01 20.5 11 22.8
0035F777 2019-03-06 10:02:15 20.4 10 23
0035F777 2019-03-06 09:32:30 20.2 10 23
0035F777 2019-03-06 09:02:46 20.3 10 23
0035F777 2019-03-06 08:33:02 20.2 10 23.1
0035F777 2019-03-06 08:03:17 20.3 11 22.3
0035F777 2019-03-06 07:33:32 20.4 11 22.4
0035F777 2019-03-06 07:03:46 20.4 11 22.3
0035F777 2019-03-06 06:34:01 20.4 12 22.1
0035F777 2019-03-06 06:04:18 20.4 12 22.1
0035F777 2019-03-06 05:34:33 20.4 12 22.1
0035F777 2019-03-06 05:04:49 20.4 12 22.3
0035F777 2019-03-06 04:35:03 20.4 12 22.1
0035F777 2019-03-06 04:05:19 20.4 12 22
0035F777 2019-03-06 03:35:34 20.4 12 22.9
0035F777 2019-03-06 03:05:50 20.5 12 23
0035F777 2019-03-06 02:36:06 20.5 12 23
0035F777 2019-03-06 02:06:23 20.5 12 22.8
0035F777 2019-03-06 01:36:39 20.5 12 22.7
0035F777 2019-03-06 01:06:21 20.5 12 22.8
0035F777 2019-03-06 00:36:36 20.6 12 22.8
0035F777 2019-03-06 00:06:52 20.6 12 22.7
0035F777 2019-03-05 23:37:09 20.6 12 22.7
0035F777 2019-03-05 23:07:25 20.6 12 22.6
0035F777 2019-03-05 22:37:41 20.7 12 23.4
0035F777 2019-03-05 22:07:57 20.7 12 23.3
0035F777 2019-03-05 21:38:13 20.7 12 23.3
0035F777 2019-03-05 21:08:29 20.7 12 23.2
0035F777 2019-03-05 20:38:44 20.8 12 23.1
0035F777 2019-03-05 20:08:58 20.8 12 23.1
0035F777 2019-03-05 19:39:14 20.8 12 23
0035F777 2019-03-05 19:09:29 20.8 12 23
0035F777 2019-03-05 18:39:43 20.8 12 23.1
0035F777 2019-03-05 18:09:59 20.9 12 23
0035F777 2019-03-05 17:40:15 20.9 13 22.9
0035F777 2019-03-05 17:10:32 21 13 22.8
0035F777 2019-03-05 16:40:49 21 14 22.9
0035F777 2019-03-05 16:11:05 21 14 22.9
0035F777 2019-03-05 15:41:21 21 15 22
0035F777 2019-03-05 15:11:37 20.8 15 22.1
0035F777 2019-03-05 14:41:53 20.6 16 22.1
0035F777 2019-03-05 14:12:08 20.5 16 22.2
0035F777 2019-03-05 13:42:24 20.5 16 22.1
0035F777 2019-03-05 13:12:39 20.5 16 22.2
0035F777 2019-03-05 12:42:53 20.5 16 21.9
0035F777 2019-03-05 12:13:08 20.5 16 22
0035F777 2019-03-05 11:43:23 20.5 17 22
0035F777 2019-03-05 11:13:38 20.4 17 22
0035F777 2019-03-05 10:43:54 20.4 17 22.1
0035F777 2019-03-05 10:14:10 20.4 17 21.2
0035F777 2019-03-05 09:44:26 20.4 17 21.2
0035F777 2019-03-05 09:14:42 20.3 18 21.4
0035F777 2019-03-05 08:44:57 20.3 18 22.4
0035F777 2019-03-05 08:15:12 20.3 18 22.4
0035F777 2019-03-05 07:45:28 20.4 19 22.2
0035F777 2019-03-05 07:15:44 20.4 19 22.3
0035F777 2019-03-05 06:46:00 20.4 19 22.3
0035F777 2019-03-05 06:16:17 20.4 19 22.3
0035F777 2019-03-05 05:46:32 20.4 19 22.3
0035F777 2019-03-05 05:16:48 20.4 19 22.3
0035F777 2019-03-05 04:47:05 20.4 19 22.2
0035F777 2019-03-05 04:17:22 20.4 19 22.3
0035F777 2019-03-05 03:47:38 20.4 19 22.2
0035F777 2019-03-05 03:17:54 20.4 19 22.3
0035F777 2019-03-05 02:48:10 20.4 19 22.1
0035F777 2019-03-05 02:18:27 20.4 19 22.1
0035F777 2019-03-05 01:48:44 20.5 19 22.2
0035F777 2019-03-05 01:19:00 20.4 19 22.2
0035F777 2019-03-05 00:49:15 20.4 19 22
0035F777 2019-03-05 00:18:58 20.4 19 22
0035F777 2019-03-04 23:49:14 20.4 19 21.9
0035F777 2019-03-04 23:19:31 20.4 18 21.7
0035F777 2019-03-04 22:49:47 20.4 18 21.8
0035F777 2019-03-04 22:20:04 20.4 18 21.5
0035F777 2019-03-04 21:50:20 20.4 18 21.7
0035F777 2019-03-04 21:20:36 20.4 18 21.6
0035F777 2019-03-04 20:50:52 20.5 18 20.4
0035F777 2019-03-04 20:21:07 20.4 18 20.4
0035F777 2019-03-04 19:51:28 20.4 18 20.6
0035F777 2019-03-04 19:21:39 20.4 18 20.6
0035F777 2019-03-04 18:51:56 20.4 18 20.7
0035F777 2019-03-04 18:22:12 20.4 18 21.8
0035F777 2019-03-04 17:52:28 20.5 18 21.9
0035F777 2019-03-04 17:22:45 20.5 18 21.8
0035F777 2019-03-04 16:53:02 20.5 18 21.9
0035F777 2019-03-04 16:23:19 20.4 18 21.9
0035F777 2019-03-04 15:53:33 20.4 17 22.1
0035F777 2019-03-04 15:23:49 20.4 17 22
0035F777 2019-03-04 14:54:04 20.4 17 22
0035F777 2019-03-04 14:24:21 20.4 17 21.9
0035F777 2019-03-04 13:54:37 20.3 17 21.7
0035F777 2019-03-04 13:24:52 20.3 17 21.7
0035F777 2019-03-04 12:55:07 20.3 17 21.8
0035F777 2019-03-04 12:25:23 20.3 16 21.7
0035F777 2019-03-04 11:55:39 20.2 16 21.7
0035F777 2019-03-04 11:25:56 20.2 16 21.7
0035F777 2019-03-04 10:56:12 20.2 16 21.7
0035F777 2019-03-04 10:26:28 20.1 16 21.8
0035F777 2019-03-04 09:56:43 20.1 17 21.8
0035F777 2019-03-04 09:26:59 20 17 21.9
0035F777 2019-03-04 08:57:14 20 17 21.8
0035F777 2019-03-04 08:27:28 19.9 17 21.9
0035F777 2019-03-04 07:57:44 19.9 17 21.8
0035F777 2019-03-04 07:28:01 19.9 17 21.7
0035F777 2019-03-04 06:58:17 19.9 18 21.9
0035F777 2019-03-04 06:28:32 19.9 17 21.8
0035F777 2019-03-04 05:58:48 19.9 17 20.7
0035F777 2019-03-04 05:29:03 19.9 17 20.6
0035F777 2019-03-04 04:59:19 19.9 17 20.7
0035F777 2019-03-04 04:29:35 20 17 20.8
0035F777 2019-03-04 03:59:52 20 17 20.8
0035F777 2019-03-04 03:30:08 20 17 20.7
0035F777 2019-03-04 03:00:23 20 17 20.7
0035F777 2019-03-04 02:30:38 20 17 20.8
0035F777 2019-03-04 02:00:53 20 17 20.9
0035F777 2019-03-04 01:31:09 20 17 20.7
0035F777 2019-03-04 01:01:24 20 17 20.6
0035F777 2019-03-04 00:31:39 20 17 20.8
0035F777 2019-03-04 00:01:55 20 17 21
0035F777 2019-03-03 23:31:39 20 17 21.3
0035F777 2019-03-03 23:01:58 20 17 21
0035F777 2019-03-03 22:32:12 20 17 21
0035F777 2019-03-03 22:02:28 20 17 20.8
0035F777 2019-03-03 21:32:43 20 17 20.7
0035F777 2019-03-03 21:02:57 20 17 20.8
0035F777 2019-03-03 20:33:12 20 17 20.9
0035F777 2019-03-03 20:03:27 20 17 21
0035F777 2019-03-03 19:33:43 20.1 18 20.8
0035F777 2019-03-03 19:03:58 20.1 18 20.9
0035F777 2019-03-03 18:34:13 20.1 18 20.9
0035F777 2019-03-03 18:04:27 20.1 18 22.1
0035F777 2019-03-03 17:34:42 20.1 18 22
0035F777 2019-03-03 17:04:56 20.1 18 21.9
0035F777 2019-03-03 16:35:09 20.1 18 21.9
0035F777 2019-03-03 16:05:23 20.1 18 21.9
0035F777 2019-03-03 15:35:37 20.1 18 21.9
0035F777 2019-03-03 15:05:50 20.1 18 21.9
0035F777 2019-03-03 14:36:05 20.1 18 22
0035F777 2019-03-03 14:06:21 20.1 18 22.9
0035F777 2019-03-03 13:36:35 20.1 18 23
0035F777 2019-03-03 13:06:50 20.1 18 23
0035F777 2019-03-03 12:37:05 20.1 18 22.9
0035F777 2019-03-03 12:07:20 20.1 18 22.8
0035F777 2019-03-03 11:37:35 20.1 18 22.7
0035F777 2019-03-03 11:07:50 20.1 18 22.7
0035F777 2019-03-03 10:38:05 20.1 18 22.7
0035F777 2019-03-03 10:08:19 20.1 18 22.7
0035F777 2019-03-03 09:38:34 20.1 18 22.7
0035F777 2019-03-03 09:08:48 20.1 18 22.8
0035F777 2019-03-03 08:39:03 20.1 18 22.6
0035F777 2019-03-03 08:09:17 20.1 18 22.7
0035F777 2019-03-03 07:39:30 20.1 18 22.7
0035F777 2019-03-03 07:09:43 20.1 18 22.7
0035F777 2019-03-03 06:39:58 20.2 18 22.7
0035F777 2019-03-03 06:10:11 20.2 18 22.6
0035F777 2019-03-03 05:40:25 20.2 18 21.8
0035F777 2019-03-03 05:10:40 20.2 18 21.8
0035F777 2019-03-03 04:40:54 20.2 18 21.8
0035F777 2019-03-03 04:11:10 20.2 18 21.7
0035F777 2019-03-03 03:41:26 20.2 18 21.6
0035F777 2019-03-03 03:11:41 20.2 18 21.8
0035F777 2019-03-03 02:41:56 20.2 18 21.9
0035F777 2019-03-03 02:12:10 20.2 18 21.7
0035F777 2019-03-03 01:42:25 20.2 18 20.7
0035F777 2019-03-03 01:12:40 20.2 18 20.7
0035F777 2019-03-03 00:42:54 20.2 18 20.9
0035F777 2019-03-03 00:13:08 20.2 18 21
0035F777 2019-03-02 23:43:22 20.3 18 20.8
0035F777 2019-03-02 23:13:35 20.3 18 21.2
0035F777 2019-03-02 22:43:18 20.3 18 21.3
0035F777 2019-03-02 22:13:33 20.3 18 21.5
0035F777 2019-03-02 21:43:48 20.3 18 21.6
0035F777 2019-03-02 21:14:03 20.3 18 21.7
0035F777 2019-03-02 20:44:21 20.3 18 21.7
0035F777 2019-03-02 20:14:37 20.3 17 21.7
0035F777 2019-03-02 19:44:50 20.3 17 21.6
0035F777 2019-03-02 19:15:06 20.4 17 21.5
0035F777 2019-03-02 18:45:21 20.4 17 21.5
0035F777 2019-03-02 18:15:37 20.4 17 21.5
0035F777 2019-03-02 17:45:52 20.4 17 21.4
0035F777 2019-03-02 17:16:08 20.4 17 21.5
0035F777 2019-03-02 16:46:24 20.5 17 21.8
0035F777 2019-03-02 16:16:39 20.5 17 22
0035F777 2019-03-02 15:46:53 20.5 17 22.2
0035F777 2019-03-02 15:17:09 20.4 17 22.1
0035F777 2019-03-02 14:47:24 20.3 17 22
0035F777 2019-03-02 14:17:39 20.3 17 22.9
0035F777 2019-03-02 13:47:54 20.3 16 22.8
0035F777 2019-03-02 13:18:10 20.3 16 22.9
0035F777 2019-03-02 12:48:26 20.3 16 22.8
0035F777 2019-03-02 12:18:43 20.3 16 22.7
0035F777 2019-03-02 11:48:58 20.3 16 22.8
0035F777 2019-03-02 11:19:14 20.3 16 22.7
0035F777 2019-03-02 10:49:27 20.3 16 22.7
0035F777 2019-03-02 10:19:43 20.3 16 22.6
0035F777 2019-03-02 09:49:58 20.3 16 22.5
0035F777 2019-03-02 09:20:13 20.3 15 23.2
0035F777 2019-03-02 08:50:29 20.3 15 23.1
0035F777 2019-03-02 08:20:44 20.3 15 23.3
0035F777 2019-03-02 07:51:01 20.3 15 23.3
0035F777 2019-03-02 07:21:16 20.3 15 23.4
0035F777 2019-03-02 06:51:32 20.3 15 23.7
0035F777 2019-03-02 06:21:47 20.3 15 23.7
0035F777 2019-03-02 05:52:03 20.3 15 23.7
0035F777 2019-03-02 05:22:19 20.3 15 23.6
0035F777 2019-03-02 04:52:34 20.4 14 23.6
0035F777 2019-03-02 04:22:49 20.4 14 23.5
0035F777 2019-03-02 03:53:04 20.4 14 23.4
0035F777 2019-03-02 03:23:19 20.4 14 23.4
0035F777 2019-03-02 02:53:35 20.4 14 23.5
0035F777 2019-03-02 02:23:51 20.5 14 23.5
0035F777 2019-03-02 01:54:06 20.5 14 22.8
0035F777 2019-03-02 01:24:22 20.5 14 22.8
0035F777 2019-03-02 00:54:37 20.6 13 22.7
0035F777 2019-03-02 00:24:53 20.6 13 22.7
0035F777 2019-03-01 23:55:07 20.6 13 22.7
0035F777 2019-03-01 23:25:23 20.7 13 22.6
0035F777 2019-03-01 22:55:38 20.7 13 22.6
0035F777 2019-03-01 22:25:54 20.8 13 22.5
0035F777 2019-03-01 21:55:37 20.8 12 22.6
0035F777 2019-03-01 21:25:53 20.9 12 21.6
0035F777 2019-03-01 20:56:10 20.9 12 21.6
0035F777 2019-03-01 20:26:22 20.9 12 21.2
0035F777 2019-03-01 19:56:39 20.9 12 21.1
0035F777 2019-03-01 19:26:54 20.9 11 21
0035F777 2019-03-01 18:57:10 20.9 11 20.6
0035F777 2019-03-01 18:27:25 20.9 11 20.3
0035F777 2019-03-01 17:57:40 21 11 20.2
0035F777 2019-03-01 17:27:56 21.2 12 21.6
0035F777 2019-03-01 16:58:12 21.3 12 21.5
0035F777 2019-03-01 16:28:28 21.3 13 21.7
0035F777 2019-03-01 15:58:43 21.3 13 21.5
0035F777 2019-03-01 15:29:00 21.4 14 21.3
0035F777 2019-03-01 14:59:16 21.1 14 21
0035F777 2019-03-01 14:29:33 20.8 14 20.9
0035F777 2019-03-01 13:59:50 20.8 14 20.7
0035F777 2019-03-01 13:30:06 20.8 14 20.6
0035F777 2019-03-01 13:00:22 20.8 14 20.7
0035F777 2019-03-01 12:30:39 20.8 15 20.7
0035F777 2019-03-01 12:00:56 20.8 15 20.6
0035F777 2019-03-01 11:31:15 20.9 15 20.7
0035F777 2019-03-01 11:01:30 20.8 16 20.5
0035F777 2019-03-01 10:31:47 20.7 15 20.5
0035F777 2019-03-01 10:02:04 20.6 15 20.3
0035F777 2019-03-01 09:32:19 20.5 15 20.4
0035F777 2019-03-01 09:02:36 20.4 16 20.3
0035F777 2019-03-01 08:32:49 20.4 16 20.3
0035F777 2019-03-01 08:03:05 20.4 16 20.3
0035F777 2019-03-01 07:33:20 20.4 17 20.4
0035F777 2019-03-01 07:03:35 20.5 17 20.3
0035F777 2019-03-01 06:33:50 20.5 17 20.3
0035F777 2019-03-01 06:04:06 20.5 17 21.6
0035F777 2019-03-01 05:34:21 20.5 18 21.8
0035F777 2019-03-01 05:04:38 20.5 18 20.5
0035F777 2019-03-01 04:34:55 20.5 18 20.4
0035F777 2019-03-01 04:05:12 20.5 18 20.4
0035F777 2019-03-01 03:35:27 20.5 18 20.5
0035F777 2019-03-01 03:05:42 20.5 19 20.4
0035F777 2019-03-01 02:35:58 20.6 19 20.4
0035F777 2019-03-01 02:06:15 20.6 19 20.4
0035F777 2019-03-01 01:36:30 20.6 20 20.7
0035F777 2019-03-01 01:06:47 20.6 20 21
0035F777 2019-03-01 00:37:03 20.6 20 21.1
0035F777 2019-03-01 00:07:18 20.6 21 21.3
0035F777 2019-02-28 23:37:34 20.6 21 21.4
0035F777 2019-02-28 23:07:50 20.7 21 21.5
0035F777 2019-02-28 22:38:05 20.7 21 21.8
0035F777 2019-02-28 22:08:22 20.7 22 22.1
0035F777 2019-02-28 21:38:38 20.8 22 22.2
0035F777 2019-02-28 21:08:21 20.8 22 22.5
0035F777 2019-02-28 20:38:37 20.8 22 22.4
0035F777 2019-02-28 20:08:52 20.8 23 22.5
0035F777 2019-02-28 19:39:07 20.9 23 22.6
0035F777 2019-02-28 19:09:23 20.9 23 22.7
0035F777 2019-02-28 18:39:38 20.9 23 22.7
0035F777 2019-02-28 18:09:55 21 24 22
0035F777 2019-02-28 17:40:12 21.2 25 22.1
0035F777 2019-02-28 17:10:30 21.3 26 22.2
0035F777 2019-02-28 16:40:47 21.3 26 22.3
0035F777 2019-02-28 16:11:03 21.3 26 22.2
0035F777 2019-02-28 15:41:23 21.3 26 22.3
0035F777 2019-02-28 15:11:39 21.2 25 22.5
0035F777 2019-02-28 14:41:56 21.2 25 22.7
0035F777 2019-02-28 14:12:12 21.2 25 23.5
0035F777 2019-02-28 13:42:29 21.2 25 23.4
0035F777 2019-02-28 13:12:45 21.2 25 23.3
0035F777 2019-02-28 12:43:02 21.1 25 23.3
0035F777 2019-02-28 12:13:18 21.1 25 23.2
0035F777 2019-02-28 11:43:34 21 25 23.3
0035F777 2019-02-28 11:13:51 21 25 23.3
0035F777 2019-02-28 10:44:07 20.9 24 23.3
0035F777 2019-02-28 10:14:26 20.8 23 23.1
0035F777 2019-02-28 09:44:39 20.7 22 23.2
0035F777 2019-02-28 09:14:54 20.7 22 23.1
0035F777 2019-02-28 08:45:10 20.7 22 23
0035F777 2019-02-28 08:15:26 20.6 22 23.2
0035F777 2019-02-28 07:45:42 20.6 22 23.2
0035F777 2019-02-28 07:15:57 20.6 22 23.2
0035F777 2019-02-28 06:46:14 20.7 22 23.1
0035F777 2019-02-28 06:16:28 20.6 22 23.3
0035F777 2019-02-28 05:46:44 20.7 22 23.2
0035F777 2019-02-28 05:16:58 20.7 22 23.2
0035F777 2019-02-28 04:47:13 20.7 21 23.1
0035F777 2019-02-28 04:17:27 20.7 21 23.2
0035F777 2019-02-28 03:47:41 20.7 21 23.2
0035F777 2019-02-28 03:17:55 20.7 21 23.1
0035F777 2019-02-28 02:48:09 20.7 21 22.9
0035F777 2019-02-28 02:18:23 20.7 21 22.8
0035F777 2019-02-28 01:48:38 20.7 21 21.8
0035F777 2019-02-28 01:18:54 20.7 21 21.7
0035F777 2019-02-28 00:49:09 20.8 22 21.6
0035F777 2019-02-28 00:19:26 20.8 22 21.4
0035F777 2019-02-27 23:49:41 20.8 22 21.3
0035F777 2019-02-27 23:19:56 20.8 22 21.2
0035F777 2019-02-27 22:50:12 20.8 22 21.3
0035F777 2019-02-27 22:20:30 20.9 22 21.3
0035F777 2019-02-27 21:50:46 20.9 22 21.3
0035F777 2019-02-27 21:21:05 21 22 21.2
0035F777 2019-02-27 20:51:18 21 22 21.2
0035F777 2019-02-27 20:20:53 21.1 22 21.4
0035F777 2019-02-27 19:51:09 21.1 23 21.5
0035F777 2019-02-27 19:21:26 21.1 23 21.6
0035F777 2019-02-27 18:51:42 21.2 23 21.4
0035F777 2019-02-27 18:21:59 21.3 23 21.3
0035F777 2019-02-27 17:52:16 21.4 24 21.3
0035F777 2019-02-27 17:22:31 21.5 25 21.4
0035F777 2019-02-27 16:52:46 21.6 26 21.6
0035F777 2019-02-27 16:23:04 21.5 26 21.6
0035F777 2019-02-27 15:53:18 21.5 26 21.7
0035F777 2019-02-27 15:23:32 21.5 26 21.7
0035F777 2019-02-27 14:53:49 21.4 26 21.6
0035F777 2019-02-27 14:24:07 21.3 26 22.7
0035F777 2019-02-27 13:54:23 21.2 25 22.8
0035F777 2019-02-27 13:24:37 21.1 25 23.1
0035F777 2019-02-27 12:54:52 21.1 25 23.3
0035F777 2019-02-27 12:25:07 21.2 25 23.3
0035F777 2019-02-27 11:55:24 21.1 25 23.5
0035F777 2019-02-27 11:25:38 21 25 23.6
0035F777 2019-02-27 10:55:53 21 26 23.6
0035F777 2019-02-27 10:26:09 20.9 25 23.5
0035F777 2019-02-27 09:56:24 20.9 25 23.6
0035F777 2019-02-27 09:26:40 20.8 24 23.6
0035F777 2019-02-27 08:56:55 20.8 24 23.8
0035F777 2019-02-27 08:27:10 20.8 24 23.8
0035F777 2019-02-27 07:57:24 20.8 23 23.7
0035F777 2019-02-27 07:27:41 20.8 23 23.7
0035F777 2019-02-27 06:57:57 20.8 23 23.7
0035F777 2019-02-27 06:28:13 20.8 23 23.7
0035F777 2019-02-27 05:58:28 20.8 23 23.7
0035F777 2019-02-27 05:28:44 20.8 23 23.8
0035F777 2019-02-27 04:58:59 20.9 23 23.8
0035F777 2019-02-27 04:29:15 20.9 23 23.7
0035F777 2019-02-27 03:59:30 20.9 23 23.7
0035F777 2019-02-27 03:29:48 20.9 23 23.6
0035F777 2019-02-27 03:00:03 20.9 23 23.7
0035F777 2019-02-27 02:30:21 20.9 23 23.8
0035F777 2019-02-27 02:00:35 21 23 23.1
0035F777 2019-02-27 01:30:51 21 23 23.1
0035F777 2019-02-27 01:01:06 21 23 22.8
0035F777 2019-02-27 00:31:22 21.1 23 22.7
0035F777 2019-02-27 00:01:38 21.1 23 22.6
0035F777 2019-02-26 23:31:54 21.1 23 22.3
0035F777 2019-02-26 23:02:10 21.2 23 23.1
0035F777 2019-02-26 22:32:26 21.2 24 23.8
0035F777 2019-02-26 22:02:44 21.3 24 24.4
0035F777 2019-02-26 21:32:59 21.3 24 24.2
0035F777 2019-02-26 21:03:16 21.4 24 24.1
0035F777 2019-02-26 20:33:33 21.4 24 24.5
0035F777 2019-02-26 20:03:49 21.5 24 25
0035F777 2019-02-26 19:33:33 21.5 24 25.8
0035F777 2019-02-26 19:03:50 21.6 24 25.8
0035F777 2019-02-26 18:34:07 21.6 24 26.1
0035F777 2019-02-26 18:04:23 21.7 24 26.5
0035F777 2019-02-26 17:34:39 21.8 24 26.8
0035F777 2019-02-26 17:04:56 21.8 25 27.1
0035F777 2019-02-26 16:35:11 21.8 25 27.3
0035F777 2019-02-26 16:05:29 21.7 25 27.6
0035F777 2019-02-26 15:35:45 21.6 25 27.8
0035F777 2019-02-26 15:06:02 21.5 25 28
0035F777 2019-02-26 14:36:18 21.4 25 28.3
0035F777 2019-02-26 14:06:33 21.4 25 28.5
0035F777 2019-02-26 13:36:51 21.4 25 28.7
0035F777 2019-02-26 13:07:07 21.4 25 28.9
0035F777 2019-02-26 12:37:23 21.3 25 29.1
0035F777 2019-02-26 12:07:39 21.3 25 29.3
0035F777 2019-02-26 11:37:57 21.2 25 29.5
0035F777 2019-02-26 11:08:14 21.1 25 29.3
0035F777 2019-02-26 10:38:31 21 25 29.1
0035F777 2019-02-26 10:08:47 20.9 24 29.1
0035F777 2019-02-26 09:39:03 20.9 24 29.3
0035F777 2019-02-26 09:09:19 20.8 24 29.5
0035F777 2019-02-26 08:39:34 20.8 23 29.5
0035F777 2019-02-26 08:09:50 20.8 23 29.5
0035F777 2019-02-26 07:40:05 20.8 23 29.5
0035F777 2019-02-26 07:10:21 20.8 23 29.5
0035F777 2019-02-26 06:40:37 20.8 23 29.7
0035F777 2019-02-26 06:10:53 20.8 23 29.7
0035F777 2019-02-26 05:41:09 20.8 23 29.7
0035F777 2019-02-26 05:11:25 20.8 22 29.7
0035F777 2019-02-26 04:41:42 20.8 22 29.7
0035F777 2019-02-26 04:12:01 20.8 22 29.7
0035F777 2019-02-26 03:42:18 20.8 22 29.7
0035F777 2019-02-26 03:12:34 20.8 22 29.5
0035F777 2019-02-26 02:42:51 20.9 22 29.3
0035F777 2019-02-26 02:13:08 20.9 22 29.1
0035F777 2019-02-26 01:43:25 20.9 22 28.9
0035F777 2019-02-26 01:13:43 20.9 21 28.7
0035F777 2019-02-26 00:44:00 20.9 21 28.5
0035F777 2019-02-26 00:14:16 21 21 28.3
0035F777 2019-02-25 23:44:34 21 21 28
0035F777 2019-02-25 23:14:53 21 21 27.8
0035F777 2019-02-25 22:45:10 21.1 21 28
0035F777 2019-02-25 22:15:28 21.1 21 27.7
0035F777 2019-02-25 21:45:46 21.2 21 27.4
0035F777 2019-02-25 21:16:03 21.2 21 27.2
0035F777 2019-02-25 20:46:21 21.3 21 26.8
0035F777 2019-02-25 20:16:37 21.3 21 26.5
0035F777 2019-02-25 19:46:53 21.4 21 26.2
0035F777 2019-02-25 19:17:10 21.4 21 25.7
0035F777 2019-02-25 18:46:54 21.4 21 24.8
0035F777 2019-02-25 18:17:11 21.5 21 24.3
0035F777 2019-02-25 17:47:27 21.5 21 23.7
0035F777 2019-02-25 17:17:43 21.5 21 23
0035F777 2019-02-25 16:48:00 21.5 22 22
0035F777 2019-02-25 16:18:17 21.6 22 20.8
0035F777 2019-02-25 15:48:34 21.5 22 21
0035F777 2019-02-25 15:18:51 21.5 23 20.8
0035F777 2019-02-25 14:49:10 21.4 22 20.9
0035F777 2019-02-25 14:19:25 21.3 22 20.9
0035F777 2019-02-25 13:49:42 21.3 22 21.1
0035F777 2019-02-25 13:19:58 21.1 22 21.3
0035F777 2019-02-25 12:50:15 21.1 22 21.5
0035F777 2019-02-25 12:20:31 21 22 21.5
0035F777 2019-02-25 11:50:49 21 22 21.3
0035F777 2019-02-25 11:21:05 20.9 23 19.8
0035F777 2019-02-25 10:51:21 20.8 23 20
0035F777 2019-02-25 10:21:37 20.7 23 20
0035F777 2019-02-25 09:51:52 20.6 22 20.1
0035F777 2019-02-25 09:22:08 20.6 22 20
0035F777 2019-02-25 08:52:24 20.5 22 20.1
0035F777 2019-02-25 08:22:40 20.5 22 20.1
0035F777 2019-02-25 07:52:54 20.5 22 20.2
0035F777 2019-02-25 07:23:09 20.5 22 20.4
0035F777 2019-02-25 06:53:24 20.5 22 21.6
0035F777 2019-02-25 06:23:40 20.5 22 21.5
0035F777 2019-02-25 05:53:56 20.5 22 21.5
0035F777 2019-02-25 05:24:13 20.5 22 21.5
0035F777 2019-02-25 04:54:28 20.5 22 21.4
0035F777 2019-02-25 04:24:44 20.5 22 21.5
0035F777 2019-02-25 03:55:00 20.5 22 21.6
0035F777 2019-02-25 03:25:17 20.5 22 21.5
0035F777 2019-02-25 02:55:30 20.5 22 21.5
0035F777 2019-02-25 02:25:45 20.5 22 21.4
0035F777 2019-02-25 01:56:00 20.5 22 21.4
0035F777 2019-02-25 01:26:14 20.5 23 21.2
0035F777 2019-02-25 00:56:28 20.5 23 21.2
0035F777 2019-02-25 00:26:43 20.5 23 20.8
0035F777 2019-02-24 23:56:58 20.5 24 20.9
0035F777 2019-02-24 23:27:13 20.6 24 20.9
0035F777 2019-02-24 22:57:30 20.6 24 21
0035F777 2019-02-24 22:27:46 20.6 24 21
0035F777 2019-02-24 21:58:00 20.6 24 21.1
0035F777 2019-02-24 21:28:16 20.6 24 21.1
0035F777 2019-02-24 20:58:33 20.6 24 21.1
0035F777 2019-02-24 20:28:49 20.6 24 21.2
0035F777 2019-02-24 19:59:06 20.7 24 21.2
0035F777 2019-02-24 19:29:22 20.6 24 21
0035F777 2019-02-24 18:59:38 20.7 24 21.1
0035F777 2019-02-24 18:29:55 20.7 24 19.7
0035F777 2019-02-24 17:59:40 20.7 24 19.7
0035F777 2019-02-24 17:29:54 20.7 24 19.6
0035F777 2019-02-24 17:00:10 20.7 24 19.7
0035F777 2019-02-24 16:30:26 20.7 24 19.8
0035F777 2019-02-24 16:00:43 20.6 23 19.6
0035F777 2019-02-24 15:30:59 20.7 23 19.7
0035F777 2019-02-24 15:01:16 20.7 23 19.9
0035F777 2019-02-24 14:31:32 20.7 23 19.9
0035F777 2019-02-24 14:01:49 20.7 23 19.9
0035F777 2019-02-24 13:32:08 20.7 23 20.2
0035F777 2019-02-24 13:02:24 20.7 23 19.9
0035F777 2019-02-24 12:32:39 20.6 23 20.1
0035F777 2019-02-24 12:02:56 20.6 23 20
0035F777 2019-02-24 11:33:10 20.7 23 19.9
0035F777 2019-02-24 11:03:28 20.7 22 19.9
0035F777 2019-02-24 10:33:47 20.6 22 19.9
0035F777 2019-02-24 10:04:02 20.6 22 20
0035F777 2019-02-24 09:34:20 20.6 22 20.1
0035F777 2019-02-24 09:04:33 20.7 22 20.2
0035F777 2019-02-24 08:34:48 20.6 22 20.2
0035F777 2019-02-24 08:05:02 20.6 22 20.1
0035F777 2019-02-24 07:35:18 20.7 22 20.2
0035F777 2019-02-24 07:05:34 20.7 22 20
0035F777 2019-02-24 06:35:51 20.7 22 20.1
0035F777 2019-02-24 06:06:06 20.7 22 20.2
0035F777 2019-02-24 05:36:21 20.7 22 20
0035F777 2019-02-24 05:06:36 20.7 22 19.9
0035F777 2019-02-24 04:36:52 20.7 22 20
0035F777 2019-02-24 04:07:08 20.7 22 19.7
0035F777 2019-02-24 03:37:25 20.8 22 19.7
0035F777 2019-02-24 03:07:39 20.8 22 19.4
0035F777 2019-02-24 02:37:55 20.7 22 19.2
0035F777 2019-02-24 02:08:10 20.8 22 19.3
0035F777 2019-02-24 01:38:25 20.8 22 19.3
0035F777 2019-02-24 01:08:40 20.8 22 19.1
0035F777 2019-02-24 00:38:57 20.8 22 19.3
0035F777 2019-02-24 00:09:12 20.8 22 19.3
0035F777 2019-02-23 23:39:29 20.8 21 19.4
0035F777 2019-02-23 23:09:42 20.9 21 19.4
0035F777 2019-02-23 22:39:59 20.9 21 19.4
0035F777 2019-02-23 22:10:15 20.9 21 19.3
0035F777 2019-02-23 21:40:32 20.9 21 19
0035F777 2019-02-23 21:10:48 20.9 21 18.8
0035F777 2019-02-23 20:41:03 21 21 18.8
0035F777 2019-02-23 20:11:21 21 20 18.9
0035F777 2019-02-23 19:41:35 21.1 20 18.8
0035F777 2019-02-23 19:11:51 21.1 20 18.6
0035F777 2019-02-23 18:42:07 21.1 20 18.7
0035F777 2019-02-23 18:12:24 21.2 19 18.6
0035F777 2019-02-23 17:42:39 21.2 19 18.4
0035F777 2019-02-23 17:12:22 21.2 19 18.5
0035F777 2019-02-23 16:42:38 21.2 18 18.2
0035F777 2019-02-23 16:12:54 21.2 18 18.2
0035F777 2019-02-23 15:43:11 21.1 18 18.5
0035F777 2019-02-23 15:13:29 21 18 18.8
0035F777 2019-02-23 14:43:45 20.8 18 18.7
0035F777 2019-02-23 14:14:04 20.8 17 18.6
0035F777 2019-02-23 13:44:18 20.8 17 18.8
0035F777 2019-02-23 13:14:35 20.8 17 18.8
0035F777 2019-02-23 12:44:51 20.8 17 18.3
0035F777 2019-02-23 12:15:08 20.8 17 18.2
0035F777 2019-02-23 11:45:26 20.8 16 18.2
0035F777 2019-02-23 11:15:39 20.7 16 18
0035F777 2019-02-23 10:45:55 20.8 16 20
0035F777 2019-02-23 10:16:12 20.7 16 20
0035F777 2019-02-23 09:16:47 20.7 15 20
0035F777 2019-02-23 08:47:04 20.7 15 20
0035F777 2019-02-23 08:17:18 20.7 15 19.8
0035F777 2019-02-23 07:47:34 20.7 14 21.1
0035F777 2019-02-23 07:17:52 20.7 14 21
0035F777 2019-02-23 06:48:06 20.7 14 21.1
0035F777 2019-02-23 06:18:22 20.7 14 20.9
0035F777 2019-02-23 05:48:39 20.8 13 20.8
0035F777 2019-02-23 05:18:59 20.7 13 20.9
0035F777 2019-02-23 04:49:14 20.7 13 20.7
0035F777 2019-02-23 04:19:29 20.7 13 20.7
0035F777 2019-02-23 03:49:46 20.7 12 20.9
0035F777 2019-02-23 03:20:02 20.7 12 20.9
0035F777 2019-02-23 02:50:19 20.7 12 20.8
0035F777 2019-02-23 02:20:35 20.7 12 20.8
0035F777 2019-02-23 01:50:52 20.8 12 20.7
0035F777 2019-02-23 01:21:10 20.8 11 20.8
0035F777 2019-02-23 00:51:24 20.8 11 20.6
0035F777 2019-02-23 00:21:39 20.8 11 20.7
0035F777 2019-02-22 23:51:54 20.8 11 20.7
0035F777 2019-02-22 23:22:09 20.8 11 20.8
0035F777 2019-02-22 22:52:24 20.9 10 20.7
0035F777 2019-02-22 22:22:42 20.9 10 20.9
0035F777 2019-02-22 21:52:57 20.9 10 19.1
0035F777 2019-02-22 21:23:15 20.9 10 19
0035F777 2019-02-22 20:53:32 20.9 10 19.2
0035F777 2019-02-22 20:23:51 21 10 19.4
0035F777 2019-02-22 19:54:05 21 10 19.4
0035F777 2019-02-22 19:24:22 21.1 9 17.1
0035F777 2019-02-22 18:54:36 21.1 9 17.1
0035F777 2019-02-22 18:24:51 21.1 9 17
0035F777 2019-02-22 17:55:06 21.1 9 17.1
0035F777 2019-02-22 17:25:21 21.2 10 17.3
0035F777 2019-02-22 16:55:37 21.2 10 17.2
0035F777 2019-02-22 16:25:18 21.3 10 19.7
0035F777 2019-02-22 16:15:17 21.2 10 19.4
0035F777 2019-02-22 16:05:15 21.2 11 19.7
0035F777 2019-02-22 15:55:14 21.2 11 20.1
0035F777 2019-02-22 15:45:13 21.2 11 19.9
0035F777 2019-02-22 15:35:13 21.1 11 20
0035F777 2019-02-22 15:25:10 21.1 11 19.9
0035F777 2019-02-22 15:15:11 21 11 20.3
0035F777 2019-02-22 15:05:08 21 11 20.1
0035F777 2019-02-22 14:55:09 20.9 11 20.2
0035F777 2019-02-22 14:45:06 20.9 11 20.2
0035F777 2019-02-22 14:35:04 20.9 11 20.2
0035F777 2019-02-22 14:25:03 20.8 11 20.1
0035F777 2019-02-22 14:15:00 20.8 11 20.3
0035F777 2019-02-22 14:05:00 20.8 11 20.3
0035F777 2019-02-22 13:54:59 20.8 11 20.2
0035F777 2019-02-22 13:44:58 20.7 11 20.1
0035F777 2019-02-22 13:34:57 20.8 11 20.1
0035F777 2019-02-22 13:24:55 20.7 11 20
0035F777 2019-02-22 13:14:54 20.8 11 20
0035F777 2019-02-22 13:04:53 20.7 11 20
0035F777 2019-02-22 12:54:51 20.7 11 20
0035F777 2019-02-22 12:44:51 20.7 11 19.9
0035F777 2019-02-22 12:34:50 20.7 11 19.9
0035F777 2019-02-22 12:24:50 20.7 11 20
0035F777 2019-02-22 12:14:49 20.7 11 17.8
0035F777 2019-02-22 12:04:50 20.7 11 18.1
0035F777 2019-02-22 11:54:48 20.7 11 18
0035F777 2019-02-22 11:44:47 20.6 11 17.6
0035F777 2019-02-22 11:34:46 20.6 11 18
0035F777 2019-02-22 11:24:46 20.6 11 17.8
0035F777 2019-02-22 11:14:44 20.6 11 18
0035F777 2019-02-22 11:04:43 20.5 11 17.5
0035F777 2019-02-22 10:54:44 20.5 11 17.5
0035F777 2019-02-22 10:44:41 20.5 11 17.8
0035F777 2019-02-22 10:34:40 20.5 11 18.1
0035F777 2019-02-22 10:24:40 20.4 11 18.1
0035F777 2019-02-22 10:14:37 20.4 11 18.4
0035F777 2019-02-22 10:04:36 20.4 11 18
0035F777 2019-02-22 09:54:35 20.4 11 18.4
0035F777 2019-02-22 09:44:33 20.4 11 18.3
0035F777 2019-02-22 09:34:32 20.3 11 18.9
0035F777 2019-02-22 09:24:29 20.3 11 18.7
0035F777 2019-02-22 09:14:28 20.3 11 18.8
0035F777 2019-02-22 09:04:26 20.3 11 19.2
0035F777 2019-02-22 08:54:24 20.3 11 19.3
0035F777 2019-02-22 08:44:23 20.3 11 19.2
0035F777 2019-02-22 08:34:23 20.3 11 19.4
0035F777 2019-02-22 08:24:22 20.3 12 19.4
0035F777 2019-02-22 08:14:20 20.4 12 19.2
0035F777 2019-02-22 08:03:46 20.4 12 19.8
0035F777 2019-02-22 07:53:44 20.4 12 19.6
0035F777 2019-02-22 07:43:43 20.4 12 19.7
0035F777 2019-02-22 07:33:42 20.4 12 19.5
0035F777 2019-02-22 07:23:40 20.4 12 19.8
0035F777 2019-02-22 07:13:39 20.4 12 19.9
0035F777 2019-02-22 07:03:37 20.4 12 20.1
0035F777 2019-02-22 06:53:37 20.4 12 20.4
0035F777 2019-02-22 06:43:36 20.4 12 20.3
0035F777 2019-02-22 06:33:35 20.4 12 20.3
0035F777 2019-02-22 06:23:35 20.4 12 20.3
0035F777 2019-02-22 06:13:32 20.4 12 20.4
0035F777 2019-02-22 06:03:31 20.4 12 20.5
0035F777 2019-02-22 05:53:32 20.4 12 20.4
0035F777 2019-02-22 05:43:31 20.4 12 20.5
0035F777 2019-02-22 05:33:28 20.4 12 20.2
0035F777 2019-02-22 05:23:27 20.4 12 20.3
0035F777 2019-02-22 05:13:28 20.4 12 20.4
0035F777 2019-02-22 05:03:28 20.4 12 20.2
0035F777 2019-02-22 04:53:25 20.5 12 20.1
0035F777 2019-02-22 04:43:24 20.4 12 20.1
0035F777 2019-02-22 04:33:23 20.4 12 20.2
0035F777 2019-02-22 04:23:22 20.5 12 20.4
0035F777 2019-02-22 04:13:21 20.5 12 20.4
0035F777 2019-02-22 04:03:20 20.5 12 20.1
0035F777 2019-02-22 03:53:19 20.5 12 19.9
0035F777 2019-02-22 03:43:18 20.5 12 19.9
0035F777 2019-02-22 03:33:17 20.5 12 19.6
0035F777 2019-02-22 03:23:15 20.5 12 19.8
0035F777 2019-02-22 03:13:15 20.5 12 19.5
0035F777 2019-02-22 03:03:13 20.5 12 19.4
0035F777 2019-02-22 02:53:13 20.5 12 19.2
0035F777 2019-02-22 02:43:12 20.5 12 18.8
0035F777 2019-02-22 02:33:11 20.5 12 20.5
0035F777 2019-02-22 02:23:10 20.5 12 20.4
0035F777 2019-02-22 02:13:10 20.5 12 20.5
0035F777 2019-02-22 02:03:09 20.5 12 20.4
0035F777 2019-02-22 01:53:08 20.5 12 20.4
0035F777 2019-02-22 01:43:08 20.5 12 20.4
0035F777 2019-02-22 01:33:09 20.5 12 20.2
0035F777 2019-02-22 01:23:06 20.5 12 20.3
0035F777 2019-02-22 01:13:05 20.5 12 20.2
0035F777 2019-02-22 01:03:05 20.5 12 20
0035F777 2019-02-22 00:53:04 20.5 12 20
0035F777 2019-02-22 00:43:03 20.6 12 20
0035F777 2019-02-22 00:33:03 20.6 12 20.1
0035F777 2019-02-22 00:23:02 20.6 12 21.4
0035F777 2019-02-22 00:13:01 20.6 12 22.3
0035F777 2019-02-22 00:03:00 20.6 12 23.2
0035F777 2019-02-21 23:52:58 20.6 12 24
0035F777 2019-02-21 23:42:25 20.6 12 24.6
0035F777 2019-02-21 23:12:41 20.6 12 24.6
0035F777 2019-02-21 22:42:58 20.6 12 24.5
0035F777 2019-02-21 22:13:13 20.6 11 24.5
0035F777 2019-02-21 21:43:30 20.7 11 24.5
0035F777 2019-02-21 21:13:46 20.7 11 24.4
0035F777 2019-02-21 20:44:02 20.8 11 24.4
0035F777 2019-02-21 20:14:19 20.8 11 24.4
0035F777 2019-02-21 19:44:36 20.9 11 24.4
0035F777 2019-02-21 19:14:53 20.9 11 24.3
0035F777 2019-02-21 18:45:09 21 11 24.3
0035F777 2019-02-21 18:15:25 21.1 12 24.2
0035F777 2019-02-21 17:45:39 21.2 12 24.2
0035F777 2019-02-21 17:16:00 21.2 12 24.2
0035F777 2019-02-21 16:46:12 21.1 12 24.2
0035F777 2019-02-21 16:16:28 20.9 12 24.2
0035F777 2019-02-21 15:46:42 20.7 12 24.2
0035F777 2019-02-21 15:17:00 20.6 12 24.2
0035F777 2019-02-21 14:47:16 20.6 12 24.2
0035F777 2019-02-21 14:17:30 20.6 12 24.1
0035F777 2019-02-21 13:47:46 20.5 12 23.4
0035F777 2019-02-21 13:18:00 20.5 13 22.5
0035F777 2019-02-21 12:48:15 20.5 13 21.5
0035F777 2019-02-21 12:18:31 20.5 13 20.1
0035F777 2019-02-21 11:48:47 20.4 13 20.3
0035F777 2019-02-21 11:19:02 20.4 13 18.2
0035F777 2019-02-21 10:49:20 20.5 14 18.2
0035F777 2019-02-21 10:19:33 20.5 14 18.2
0035F777 2019-02-21 09:49:48 20.4 14 18.1
0035F777 2019-02-21 09:20:02 20.4 14 18.5
0035F777 2019-02-21 08:50:19 20.4 15 18.5
0035F777 2019-02-21 08:20:32 20.4 15 18.6
0035F777 2019-02-21 07:50:48 20.4 16 15.1
0035F777 2019-02-21 07:21:02 20.5 16 15.2
0035F777 2019-02-21 06:51:18 20.4 16 15.7
0035F777 2019-02-21 06:21:33 20.5 16 16.1
0035F777 2019-02-21 05:51:51 20.5 16 16.4
0035F777 2019-02-21 05:22:05 20.5 17 16.5
0035F777 2019-02-21 04:52:21 20.5 17 16.3
0035F777 2019-02-21 04:22:35 20.5 17 16.3
0035F777 2019-02-21 03:52:51 20.5 17 16.3
0035F777 2019-02-21 03:23:10 20.5 17 16.2
0035F777 2019-02-21 02:53:25 20.5 17 16
0035F777 2019-02-21 02:23:40 20.5 17 19
0035F777 2019-02-21 01:53:55 20.5 17 20.7
0035F777 2019-02-21 01:24:10 20.6 17 20.8
0035F777 2019-02-21 00:24:43 20.6 18 22
0035F777 2019-02-20 23:54:57 20.6 18 23
0035F777 2019-02-20 23:25:13 20.6 18 22.9
0035F777 2019-02-20 22:54:45 20.6 18 23.7
0035F777 2019-02-20 22:24:59 20.6 18 23.7
0035F777 2019-02-20 21:55:15 20.6 18 24.3
0035F777 2019-02-20 21:25:34 20.6 18 24.3
0035F777 2019-02-20 20:55:45 20.6 18 24.4
0035F777 2019-02-20 20:26:01 20.6 18 24.3
0035F777 2019-02-20 19:56:16 20.6 18 24.3
0035F777 2019-02-20 19:26:31 20.6 18 24.3
0035F777 2019-02-20 18:56:47 20.6 18 24.4
0035F777 2019-02-20 18:27:04 20.6 18 24.4
0035F777 2019-02-20 17:57:17 20.7 19 24.4
0035F777 2019-02-20 17:27:32 20.7 19 24.3
0035F777 2019-02-20 16:57:47 20.7 20 24.3
0035F777 2019-02-20 16:28:02 20.7 20 24.3
0035F777 2019-02-20 15:28:32 20.7 21 24.4
0035F777 2019-02-20 14:58:47 20.7 21 24.4
0035F777 2019-02-20 14:29:02 20.7 22 24.4